Air Quality Table

TIMESTAMP NO2 SO2 O3 PM10 PM2.5 CO TEMP HUM WS WD NO
2021-11-29 21:00 1.33 µg/m3 0.18 µg/m3 86.82 µg/m3 N/A 8.87 µg/m3 0.16 mg/m3 11.3 °C 74.29 % 17.34 m/s 279.22 Deg -0.05 µg/m3
2021-11-29 20:00 1.36 µg/m3 0.23 µg/m3 87.12 µg/m3 N/A 10.45 µg/m3 0.15 mg/m3 11.95 °C 71.36 % 15.95 m/s 252.38 Deg -0.06 µg/m3
2021-11-29 19:00 1.22 µg/m3 0.23 µg/m3 88.35 µg/m3 N/A 14.36 µg/m3 0.15 mg/m3 13.65 °C 58.2 % 18.99 m/s 193.2 Deg -0.07 µg/m3
2021-11-29 18:00 1.12 µg/m3 0.22 µg/m3 88.63 µg/m3 N/A 9.4 µg/m3 0.15 mg/m3 14.31 °C 57.39 % 19.58 m/s 199.56 Deg -0.09 µg/m3
2021-11-29 17:00 1.33 µg/m3 0.21 µg/m3 82.65 µg/m3 N/A 9.55 µg/m3 0.16 mg/m3 14.03 °C 68.43 % 17.91 m/s 216.52 Deg -0.1 µg/m3
2021-11-29 16:00 1.34 µg/m3 0.19 µg/m3 83.48 µg/m3 N/A 9.96 µg/m3 0.15 mg/m3 13.34 °C 67.47 % 18.57 m/s 246.03 Deg -0.09 µg/m3
2021-11-29 15:00 1.04 µg/m3 0.39 µg/m3 83.47 µg/m3 N/A 6.79 µg/m3 0.15 mg/m3 14.68 °C 59.29 % 17.18 m/s 183.29 Deg -0.1 µg/m3
2021-11-29 14:00 1.03 µg/m3 0.25 µg/m3 84.07 µg/m3 N/A 6.72 µg/m3 0.15 mg/m3 14.49 °C 61.05 % 16.07 m/s 160.33 Deg -0.05 µg/m3
2021-11-29 13:00 0.98 µg/m3 0.2 µg/m3 82.48 µg/m3 N/A 5.48 µg/m3 0.15 mg/m3 14.47 °C 59.69 % 15.99 m/s 165.14 Deg -0.05 µg/m3
2021-11-29 12:00 0.99 µg/m3 0.18 µg/m3 81.08 µg/m3 N/A 3.04 µg/m3 0.15 mg/m3 14.45 °C 59.51 % 15.51 m/s 185.79 Deg -0.03 µg/m3
2021-11-29 11:00 1.09 µg/m3 0.24 µg/m3 80.76 µg/m3 N/A 2.7 µg/m3 0.15 mg/m3 14.31 °C 58 % 14.89 m/s 182.86 Deg -0.03 µg/m3
2021-11-29 10:00 1.15 µg/m3 0.23 µg/m3 79.65 µg/m3 N/A 3.25 µg/m3 0.15 mg/m3 14.07 °C 58.4 % 14.23 m/s 197.12 Deg -0.03 µg/m3
2021-11-29 09:00 1.26 µg/m3 0.28 µg/m3 80.15 µg/m3 N/A 1.83 µg/m3 0.15 mg/m3 13.87 °C 60.24 % 14.18 m/s 157.61 Deg -0.06 µg/m3
2021-11-29 08:00 1.2 µg/m3 0.31 µg/m3 80.3 µg/m3 N/A 2.72 µg/m3 0.15 mg/m3 13.75 °C 58.52 % 14.17 m/s 143.06 Deg -0.1 µg/m3
2021-11-29 07:00 1.1 µg/m3 0.24 µg/m3 81.31 µg/m3 N/A 3.62 µg/m3 0.15 mg/m3 13.72 °C 59.13 % 13.45 m/s 200.12 Deg -0.12 µg/m3
2021-11-29 06:00 0.99 µg/m3 0.18 µg/m3 81.38 µg/m3 N/A 4.71 µg/m3 0.15 mg/m3 13.72 °C 60.53 % 13.37 m/s 203.09 Deg -0.13 µg/m3
2021-11-29 05:00 1.08 µg/m3 0.2 µg/m3 79.77 µg/m3 N/A 5.09 µg/m3 0.12 mg/m3 13.57 °C 61.76 % 12.81 m/s 196.57 Deg -0.12 µg/m3
2021-11-29 04:00 0.85 µg/m3 0.17 µg/m3 80.94 µg/m3 N/A 5.43 µg/m3 0.17 mg/m3 13.64 °C 64.15 % 13.11 m/s 254.34 Deg -0.12 µg/m3
2021-11-29 03:00 0.82 µg/m3 0.2 µg/m3 81.48 µg/m3 N/A 3.46 µg/m3 0.17 mg/m3 13.64 °C 65.54 % 12.39 m/s 220.98 Deg -0.12 µg/m3
2021-11-29 02:00 1.1 µg/m3 0.19 µg/m3 83.76 µg/m3 N/A 3.71 µg/m3 0.17 mg/m3 14.03 °C 64.58 % 12.63 m/s 233.72 Deg -0.11 µg/m3
2021-11-29 01:00 0.95 µg/m3 0.13 µg/m3 83.67 µg/m3 N/A 3.1 µg/m3 0.17 mg/m3 13.65 °C 71.76 % 10.71 m/s 214.42 Deg -0.11 µg/m3
2021-11-29 00:00 1.31 µg/m3 0.17 µg/m3 82.38 µg/m3 N/A 2.43 µg/m3 0.18 mg/m3 12.6 °C 84.32 % 10.2 m/s 255.37 Deg -0.11 µg/m3
2021-11-28 23:00 1.2 µg/m3 0.13 µg/m3 84.67 µg/m3 N/A 3.37 µg/m3 0.17 mg/m3 13.79 °C 76.49 % 9.05 m/s 230.44 Deg -0.12 µg/m3
2021-11-28 22:00 1.13 µg/m3 0.16 µg/m3 85.67 µg/m3 N/A 3.44 µg/m3 0.17 mg/m3 14.77 °C 70.04 % 9.36 m/s 196.96 Deg -0.12 µg/m3
2021-11-28 21:00 1.36 µg/m3 0.18 µg/m3 86.77 µg/m3 N/A 3.86 µg/m3 0.17 mg/m3 14.8 °C 74.43 % 8.65 m/s 246.83 Deg -0.12 µg/m3
2021-11-28 20:00 0.92 µg/m3 0.21 µg/m3 91.27 µg/m3 N/A 4.57 µg/m3 0.16 mg/m3 15.69 °C 62.41 % 9.84 m/s 224.78 Deg -0.12 µg/m3
2021-11-28 19:00 0.8 µg/m3 0.18 µg/m3 93.19 µg/m3 N/A 4.07 µg/m3 0.16 mg/m3 15.64 °C 66.33 % 9.57 m/s 183.49 Deg -0.13 µg/m3
2021-11-28 18:00 0.69 µg/m3 0.17 µg/m3 94.02 µg/m3 N/A 4.2 µg/m3 0.16 mg/m3 15.34 °C 71.19 % 9.38 m/s 232.43 Deg -0.13 µg/m3
2021-11-28 17:00 0.41 µg/m3 0.14 µg/m3 91.6 µg/m3 N/A 2.81 µg/m3 0.15 mg/m3 14.04 °C 90.52 % 11.14 m/s 230.55 Deg -0.13 µg/m3
2021-11-28 16:00 0.35 µg/m3 0.16 µg/m3 89.38 µg/m3 N/A 3.22 µg/m3 0.15 mg/m3 13.99 °C 97.94 % 10.26 m/s 256.74 Deg -0.12 µg/m3
2021-11-28 15:00 0.35 µg/m3 0.2 µg/m3 89.19 µg/m3 N/A 1.73 µg/m3 0.15 mg/m3 14.69 °C 96.09 % 9.11 m/s 182.88 Deg -0.12 µg/m3
2021-11-28 14:00 0.39 µg/m3 0.15 µg/m3 89.37 µg/m3 N/A 4.54 µg/m3 0.15 mg/m3 15.25 °C 89.22 % 8.76 m/s 223.78 Deg -0.12 µg/m3
2021-11-28 13:00 0.28 µg/m3 0.23 µg/m3 90.51 µg/m3 N/A 4.12 µg/m3 0.15 mg/m3 15.74 °C 84.02 % 11.58 m/s 176.6 Deg -0.1 µg/m3
2021-11-28 12:00 0.4 µg/m3 0.22 µg/m3 91.07 µg/m3 N/A 3.51 µg/m3 0.15 mg/m3 14.71 °C 95.93 % 12.49 m/s 180.03 Deg -0.11 µg/m3
2021-11-28 11:00 0.48 µg/m3 0.23 µg/m3 92.44 µg/m3 N/A 2.82 µg/m3 0.16 mg/m3 13.64 °C 98.85 % 10.68 m/s 193.58 Deg -0.11 µg/m3
2021-11-28 10:00 0.53 µg/m3 0.2 µg/m3 95.64 µg/m3 N/A 3.28 µg/m3 0.15 mg/m3 12.97 °C 98.38 % 10.36 m/s 191.44 Deg -0.13 µg/m3
2021-11-28 09:00 0.64 µg/m3 0.2 µg/m3 97.27 µg/m3 N/A 1.83 µg/m3 0.15 mg/m3 12.21 °C 97.8 % 9.51 m/s 191.33 Deg -0.13 µg/m3
2021-11-28 08:00 0.65 µg/m3 0.27 µg/m3 97.83 µg/m3 N/A 2.08 µg/m3 0.15 mg/m3 12.33 °C 89.81 % 7.84 m/s 200.31 Deg -0.12 µg/m3
2021-11-28 07:00 0.73 µg/m3 0.35 µg/m3 95.82 µg/m3 N/A 2.74 µg/m3 0.15 mg/m3 14.27 °C 77.62 % 9.17 m/s 217.56 Deg -0.12 µg/m3
2021-11-28 06:00 0.91 µg/m3 0.32 µg/m3 93.25 µg/m3 N/A 6.31 µg/m3 0.15 mg/m3 15.47 °C 70.9 % 9.55 m/s 229.91 Deg -0.12 µg/m3
2021-11-28 05:00 1.49 µg/m3 0.68 µg/m3 90.19 µg/m3 N/A 5.98 µg/m3 0.13 mg/m3 16.84 °C 66.53 % 10.85 m/s 201.1 Deg -0.11 µg/m3
2021-11-28 04:00 0.97 µg/m3 1.35 µg/m3 92.97 µg/m3 N/A 6.51 µg/m3 0.17 mg/m3 17.21 °C 64 % 9.34 m/s 149.8 Deg -0.12 µg/m3
2021-11-28 03:00 0.88 µg/m3 1.14 µg/m3 94.23 µg/m3 N/A 6.82 µg/m3 0.17 mg/m3 17.25 °C 63.55 % 9.37 m/s 155.11 Deg -0.12 µg/m3
2021-11-28 02:00 0.81 µg/m3 0.87 µg/m3 95.42 µg/m3 N/A 6.35 µg/m3 0.17 mg/m3 17.39 °C 62.38 % 10.23 m/s 139.19 Deg -0.13 µg/m3
2021-11-28 01:00 0.84 µg/m3 0.41 µg/m3 96.7 µg/m3 N/A 7.04 µg/m3 0.16 mg/m3 17.67 °C 61.49 % 9.03 m/s 183.02 Deg -0.12 µg/m3
2021-11-28 00:00 1.15 µg/m3 0.82 µg/m3 94.95 µg/m3 N/A 7.18 µg/m3 0.16 mg/m3 17.82 °C 59.55 % 7.98 m/s 124.01 Deg -0.12 µg/m3
2021-11-27 23:00 1.29 µg/m3 0.61 µg/m3 95.32 µg/m3 N/A 6.49 µg/m3 0.17 mg/m3 18.02 °C 61.73 % 7.48 m/s 141.6 Deg -0.12 µg/m3
2021-11-27 22:00 1.22 µg/m3 0.81 µg/m3 98.82 µg/m3 N/A 7.12 µg/m3 0.17 mg/m3 18.11 °C 61.38 % 7.42 m/s 178.95 Deg -0.12 µg/m3
2021-11-27 21:00 1.13 µg/m3 0.54 µg/m3 96.42 µg/m3 N/A 7.17 µg/m3 0.17 mg/m3 17.48 °C 66.13 % 6.01 m/s 133.01 Deg -0.12 µg/m3
2021-11-27 20:00 0.99 µg/m3 0.52 µg/m3 95.85 µg/m3 N/A 6.66 µg/m3 0.17 mg/m3 17.21 °C 66.46 % 7.61 m/s 158.24 Deg -0.12 µg/m3
2021-11-27 19:00 0.9 µg/m3 0.32 µg/m3 95.42 µg/m3 N/A 6.28 µg/m3 0.16 mg/m3 17.27 °C 65.97 % 9.11 m/s 235.77 Deg -0.13 µg/m3
2021-11-27 18:00 0.77 µg/m3 0.22 µg/m3 95.23 µg/m3 N/A 6.44 µg/m3 0.16 mg/m3 17.15 °C 66.62 % 9.69 m/s 184.88 Deg -0.12 µg/m3
2021-11-27 17:00 0.61 µg/m3 0.23 µg/m3 93.19 µg/m3 N/A 4.99 µg/m3 0.16 mg/m3 17.07 °C 65.54 % 8.95 m/s 185.19 Deg -0.12 µg/m3
2021-11-27 16:00 0.56 µg/m3 0.28 µg/m3 91.28 µg/m3 N/A 4.68 µg/m3 0.16 mg/m3 17.03 °C 64.45 % 7.22 m/s 193.57 Deg -0.1 µg/m3
2021-11-27 15:00 1.53 µg/m3 0.28 µg/m3 91.17 µg/m3 N/A 4.91 µg/m3 0.16 mg/m3 17.04 °C 69.49 % 5.31 m/s 183.22 Deg 0.06 µg/m3
2021-11-27 14:00 0.7 µg/m3 0.29 µg/m3 91 µg/m3 N/A 4.05 µg/m3 0.16 mg/m3 16.83 °C 72.41 % 4 m/s 227.97 Deg -0.05 µg/m3
2021-11-27 13:00 0.59 µg/m3 0.25 µg/m3 90.54 µg/m3 N/A 5.94 µg/m3 0.16 mg/m3 16.17 °C 74.6 % 3.54 m/s 167.05 Deg -0.07 µg/m3
2021-11-27 12:00 0.59 µg/m3 0.24 µg/m3 89.87 µg/m3 N/A 8.07 µg/m3 0.16 mg/m3 14.45 °C 78.73 % 3.45 m/s 225.42 Deg -0.1 µg/m3
2021-11-27 11:00 0.54 µg/m3 0.22 µg/m3 89.38 µg/m3 N/A 7.91 µg/m3 0.16 mg/m3 13.26 °C 91.69 % 3.88 m/s 211.73 Deg -0.12 µg/m3
2021-11-27 10:00 0.53 µg/m3 0.18 µg/m3 90.4 µg/m3 N/A 6.96 µg/m3 0.16 mg/m3 12.92 °C 97.16 % 4.67 m/s 238.31 Deg -0.13 µg/m3
2021-11-27 09:00 0.64 µg/m3 0.23 µg/m3 92.16 µg/m3 N/A 8.12 µg/m3 0.16 mg/m3 14.4 °C 81.96 % 7.95 m/s 242.89 Deg -0.12 µg/m3
2021-11-27 08:00 0.68 µg/m3 0.31 µg/m3 91.74 µg/m3 N/A 11.61 µg/m3 0.16 mg/m3 18.03 °C 57.12 % 7.63 m/s 184.13 Deg -0.12 µg/m3
2021-11-27 07:00 0.77 µg/m3 0.69 µg/m3 87.09 µg/m3 N/A 10.44 µg/m3 0.17 mg/m3 18.54 °C 64.42 % 7.6 m/s 159.51 Deg -0.12 µg/m3
2021-11-27 06:00 0.88 µg/m3 0.46 µg/m3 88.25 µg/m3 N/A 7.07 µg/m3 0.17 mg/m3 18.42 °C 64.05 % 7.14 m/s 131.07 Deg -0.12 µg/m3
2021-11-27 05:00 0.83 µg/m3 0.35 µg/m3 89.4 µg/m3 N/A 5.81 µg/m3 0.14 mg/m3 18.08 °C 61.11 % 6.85 m/s 166.63 Deg -0.12 µg/m3
2021-11-27 04:00 1.06 µg/m3 0.42 µg/m3 88.98 µg/m3 N/A 5.5 µg/m3 0.19 mg/m3 17.93 °C 65.22 % 7.26 m/s 137.14 Deg -0.12 µg/m3
2021-11-27 03:00 1.2 µg/m3 1.06 µg/m3 87.28 µg/m3 N/A 5.62 µg/m3 0.19 mg/m3 17.88 °C 67.22 % 6.83 m/s 145.79 Deg -0.12 µg/m3
2021-11-27 02:00 1.51 µg/m3 4.46 µg/m3 88.1 µg/m3 N/A 4.62 µg/m3 0.19 mg/m3 17.96 °C 64.85 % 7.91 m/s 131.7 Deg -0.11 µg/m3
2021-11-27 01:00 1.6 µg/m3 0.42 µg/m3 94.75 µg/m3 N/A 4.51 µg/m3 0.19 mg/m3 17.67 °C 62.22 % 6.91 m/s 161.92 Deg -0.12 µg/m3
2021-11-27 00:00 1.39 µg/m3 0.38 µg/m3 94.55 µg/m3 N/A 3.84 µg/m3 0.19 mg/m3 17.29 °C 60.27 % 5.69 m/s 177.57 Deg -0.12 µg/m3
2021-11-26 23:00 1.44 µg/m3 0.33 µg/m3 94.33 µg/m3 N/A 3.97 µg/m3 0.19 mg/m3 17.07 °C 59.25 % 6.03 m/s 168.99 Deg -0.12 µg/m3
2021-11-26 22:00 2.04 µg/m3 0.56 µg/m3 94.31 µg/m3 N/A 4.01 µg/m3 0.19 mg/m3 16.98 °C 60.12 % 6.52 m/s 203.09 Deg -0.11 µg/m3
2021-11-26 21:00 1.3 µg/m3 0.67 µg/m3 96.97 µg/m3 N/A 3.39 µg/m3 0.19 mg/m3 16.88 °C 59.83 % 7.34 m/s 148.68 Deg -0.13 µg/m3
2021-11-26 20:00 1.23 µg/m3 0.56 µg/m3 96.6 µg/m3 N/A 3.47 µg/m3 0.19 mg/m3 16.84 °C 58.75 % 7.56 m/s 189.88 Deg -0.12 µg/m3
2021-11-26 19:00 1.23 µg/m3 0.31 µg/m3 96.08 µg/m3 N/A 3.71 µg/m3 0.19 mg/m3 16.83 °C 58.82 % 7.96 m/s 142.61 Deg -0.12 µg/m3
2021-11-26 18:00 2 µg/m3 0.51 µg/m3 96.71 µg/m3 N/A 4.25 µg/m3 0.19 mg/m3 16.75 °C 61.62 % 8.06 m/s 218.21 Deg -0.13 µg/m3
2021-11-26 17:00 2.1 µg/m3 0.49 µg/m3 94.66 µg/m3 N/A 3.18 µg/m3 0.19 mg/m3 16.66 °C 63.64 % 7.98 m/s 177.92 Deg -0.1 µg/m3
2021-11-26 16:00 1.48 µg/m3 0.39 µg/m3 93.65 µg/m3 N/A 3.33 µg/m3 0.19 mg/m3 17.01 °C 60.94 % 8.74 m/s 157.34 Deg -0.07 µg/m3
2021-11-26 15:00 1.33 µg/m3 0.48 µg/m3 90.11 µg/m3 N/A 2.96 µg/m3 0.19 mg/m3 17.3 °C 61.79 % 8.51 m/s 187.8 Deg -0.05 µg/m3
2021-11-26 14:00 1.42 µg/m3 0.31 µg/m3 89.23 µg/m3 N/A 4.07 µg/m3 0.19 mg/m3 17.59 °C 59.67 % 9.63 m/s 230.31 Deg -0.02 µg/m3
2021-11-26 13:00 1.85 µg/m3 0.34 µg/m3 91.41 µg/m3 N/A 4.15 µg/m3 0.19 mg/m3 17.65 °C 66.66 % 9.51 m/s 165 Deg 0.03 µg/m3
2021-11-26 12:00 1.61 µg/m3 0.24 µg/m3 86.25 µg/m3 N/A 3.33 µg/m3 0.18 mg/m3 17.36 °C 75.27 % 7.02 m/s 191.09 Deg 0.05 µg/m3
2021-11-26 11:00 1.23 µg/m3 0.27 µg/m3 84.43 µg/m3 N/A 4.47 µg/m3 0.18 mg/m3 18 °C 72.35 % 7.77 m/s 127.4 Deg -0.01 µg/m3
2021-11-26 10:00 1.19 µg/m3 0.42 µg/m3 86.25 µg/m3 N/A 4.86 µg/m3 0.17 mg/m3 17.85 °C 69.76 % 5.29 m/s 180.6 Deg -0.03 µg/m3
2021-11-26 09:00 1.73 µg/m3 0.68 µg/m3 83.62 µg/m3 N/A 3.85 µg/m3 0.18 mg/m3 17.56 °C 67.48 % 5.53 m/s 170.02 Deg -0.04 µg/m3
2021-11-26 08:00 2.21 µg/m3 0.36 µg/m3 83.11 µg/m3 N/A 3.28 µg/m3 0.18 mg/m3 17.15 °C 65.04 % 5.39 m/s 209.17 Deg -0.07 µg/m3
2021-11-26 07:00 2.2 µg/m3 0.34 µg/m3 82.85 µg/m3 N/A 3.72 µg/m3 0.18 mg/m3 16.76 °C 65.48 % 4.69 m/s 179.68 Deg -0.11 µg/m3
2021-11-26 06:00 1.74 µg/m3 0.27 µg/m3 82.87 µg/m3 N/A 4.11 µg/m3 0.18 mg/m3 16.61 °C 67.61 % 5.18 m/s 203.14 Deg -0.12 µg/m3
2021-11-26 05:00 1.92 µg/m3 0.34 µg/m3 83.95 µg/m3 N/A 4.78 µg/m3 0.14 mg/m3 16.44 °C 71.35 % 4.99 m/s 241 Deg -0.13 µg/m3
2021-11-26 04:00 1.7 µg/m3 0.33 µg/m3 90.12 µg/m3 N/A 3.6 µg/m3 0.17 mg/m3 14.59 °C 80.83 % 5.23 m/s 206.05 Deg -0.12 µg/m3
2021-11-26 03:00 2.21 µg/m3 0.41 µg/m3 89.27 µg/m3 N/A 4.27 µg/m3 0.17 mg/m3 15.6 °C 83.61 % 5.27 m/s 217.74 Deg -0.12 µg/m3
2021-11-26 02:00 0.95 µg/m3 0.43 µg/m3 92.87 µg/m3 N/A 4.73 µg/m3 0.16 mg/m3 16.91 °C 73.69 % 5.04 m/s 225.93 Deg -0.13 µg/m3
2021-11-26 01:00 0.56 µg/m3 0.6 µg/m3 91.89 µg/m3 N/A 4.65 µg/m3 0.16 mg/m3 17.26 °C 73.46 % 6.8 m/s 195.24 Deg -0.13 µg/m3
2021-11-26 00:00 0.83 µg/m3 0.63 µg/m3 90.78 µg/m3 N/A 4.33 µg/m3 0.15 mg/m3 17.23 °C 72.38 % 6.6 m/s 194.73 Deg -0.13 µg/m3
2021-11-25 23:00 0.45 µg/m3 0.54 µg/m3 90.78 µg/m3 N/A 5.67 µg/m3 0.16 mg/m3 17.3 °C 73.52 % 7.04 m/s 187.95 Deg -0.13 µg/m3
2021-11-25 22:00 0.42 µg/m3 0.59 µg/m3 91.41 µg/m3 N/A 4.57 µg/m3 0.15 mg/m3 17.5 °C 74.34 % 6.97 m/s 236.47 Deg -0.13 µg/m3
2021-11-25 21:00 0.45 µg/m3 0.49 µg/m3 91.21 µg/m3 N/A 4.28 µg/m3 0.16 mg/m3 16.64 °C 80.41 % 5.65 m/s 216.19 Deg -0.13 µg/m3
2021-11-25 20:00 0.34 µg/m3 0.41 µg/m3 91.55 µg/m3 N/A 5.27 µg/m3 0.16 mg/m3 16.74 °C 84.96 % 7.55 m/s 206.52 Deg -0.13 µg/m3
2021-11-25 19:00 0.38 µg/m3 0.26 µg/m3 91.7 µg/m3 N/A 4.88 µg/m3 0.16 mg/m3 17.71 °C 83.85 % 5.97 m/s 257.56 Deg -0.13 µg/m3
2021-11-25 18:00 0.47 µg/m3 0.21 µg/m3 91.07 µg/m3 N/A 5.06 µg/m3 0.16 mg/m3 18.45 °C 84.53 % 6.33 m/s 179.64 Deg -0.13 µg/m3
2021-11-25 17:00 0.42 µg/m3 0.22 µg/m3 90.11 µg/m3 N/A 4.61 µg/m3 0.16 mg/m3 18.74 °C 84.33 % 5.62 m/s 126.24 Deg -0.12 µg/m3
2021-11-25 16:00 3.23 µg/m3 0.22 µg/m3 80.48 µg/m3 N/A 5.19 µg/m3 0.17 mg/m3 19.02 °C 85.74 % 4.49 m/s 152.98 Deg 0.37 µg/m3
2021-11-25 15:00 2.58 µg/m3 0.23 µg/m3 83.92 µg/m3 N/A 3.69 µg/m3 0.17 mg/m3 19.16 °C 85.17 % 3.53 m/s 99.88 Deg 0.2 µg/m3
2021-11-25 14:00 1.5 µg/m3 0.2 µg/m3 80.38 µg/m3 N/A 2.68 µg/m3 0.16 mg/m3 18.06 °C 94 % 4.27 m/s 17.47 Deg 0.16 µg/m3
2021-11-25 13:00 1.5 µg/m3 0.2 µg/m3 81.51 µg/m3 N/A 2.96 µg/m3 0.16 mg/m3 17.43 °C 100 % 5.2 m/s 59.41 Deg 0.19 µg/m3
2021-11-25 12:00 1.1 µg/m3 0.16 µg/m3 85.86 µg/m3 4.78 µg/m3 N/A 0.16 mg/m3 16.7 °C 100 % 5.55 m/s 96.12 Deg -0.05 µg/m3
2021-11-25 11:00 1.14 µg/m3 0.19 µg/m3 87.36 µg/m3 7.12 µg/m3 N/A 0.15 mg/m3 16.01 °C 100 % 6.3 m/s 127.15 Deg -0.08 µg/m3
2021-11-25 10:00 0.86 µg/m3 0.18 µg/m3 86.48 µg/m3 5.21 µg/m3 N/A 0.16 mg/m3 15.42 °C 99.95 % 7.39 m/s 136.55 Deg -0.11 µg/m3
2021-11-25 09:00 1.03 µg/m3 0.2 µg/m3 82.82 µg/m3 5.89 µg/m3 3.45 µg/m3 0.16 mg/m3 15.08 °C 98.51 % 5.9 m/s 75.86 Deg -0.1 µg/m3
2021-11-25 08:00 2.25 µg/m3 0.24 µg/m3 80.35 µg/m3 7.92 µg/m3 3.87 µg/m3 0.16 mg/m3 15.91 °C 95.04 % 4.29 m/s 81.2 Deg -0.06 µg/m3
2021-11-25 07:00 1.54 µg/m3 0.28 µg/m3 91.88 µg/m3 6.07 µg/m3 4.15 µg/m3 0.17 mg/m3 16.59 °C 88.95 % 4.33 m/s 197.34 Deg -0.11 µg/m3
2021-11-25 06:00 2.45 µg/m3 0.29 µg/m3 93.16 µg/m3 5.86 µg/m3 4.47 µg/m3 0.16 mg/m3 16.58 °C 83.81 % 4.86 m/s 27.11 Deg -0.1 µg/m3
2021-11-25 05:00 6.8 µg/m3 0.27 µg/m3 85.02 µg/m3 5.86 µg/m3 6 µg/m3 0.13 mg/m3 15.97 °C 84.87 % 4.37 m/s 78.66 Deg -0.08 µg/m3
2021-11-25 04:00 9.53 µg/m3 0.28 µg/m3 79.74 µg/m3 5.67 µg/m3 5.21 µg/m3 0.18 mg/m3 15.71 °C 86.05 % 4.89 m/s 35.95 Deg -0.08 µg/m3
2021-11-25 03:00 5.23 µg/m3 0.31 µg/m3 85.51 µg/m3 4.78 µg/m3 3.73 µg/m3 0.19 mg/m3 15.62 °C 85.9 % 4.62 m/s 118.2 Deg -0.08 µg/m3
2021-11-25 02:00 6.45 µg/m3 0.27 µg/m3 84.92 µg/m3 4.01 µg/m3 4.61 µg/m3 0.2 mg/m3 15.64 °C 82.92 % 4.74 m/s 78.29 Deg -0.06 µg/m3
2021-11-25 01:00 11.78 µg/m3 0.35 µg/m3 77.57 µg/m3 6.82 µg/m3 5.59 µg/m3 0.19 mg/m3 15.63 °C 80.69 % 4.25 m/s 42.2 Deg -0.07 µg/m3
2021-11-25 00:00 10.16 µg/m3 0.31 µg/m3 80.95 µg/m3 8.03 µg/m3 5.37 µg/m3 0.19 mg/m3 15.78 °C 79.97 % 3.81 m/s 60.11 Deg -0.07 µg/m3
2021-11-24 23:00 6.02 µg/m3 0.47 µg/m3 87.07 µg/m3 9.82 µg/m3 6.08 µg/m3 0.2 mg/m3 16.08 °C 79.87 % 3.35 m/s 67.57 Deg -0.08 µg/m3
2021-11-24 22:00 12.97 µg/m3 0.49 µg/m3 76.78 µg/m3 10.01 µg/m3 5.25 µg/m3 0.22 mg/m3 16.26 °C 79.21 % 2.67 m/s 98.08 Deg -0.05 µg/m3
2021-11-24 21:00 15.11 µg/m3 0.48 µg/m3 73.96 µg/m3 5.22 µg/m3 3.51 µg/m3 0.22 mg/m3 16.45 °C 79.18 % 3.17 m/s 57.09 Deg -0.05 µg/m3
2021-11-24 20:00 5.24 µg/m3 0.44 µg/m3 91.88 µg/m3 5.48 µg/m3 3.09 µg/m3 0.19 mg/m3 16.79 °C 75.82 % 1.85 m/s 92.54 Deg -0.09 µg/m3
2021-11-24 19:00 4.42 µg/m3 0.39 µg/m3 96.07 µg/m3 9.5 µg/m3 6.44 µg/m3 0.18 mg/m3 16.94 °C 74.02 % 1.83 m/s 107.08 Deg -0.1 µg/m3
2021-11-24 18:00 7.82 µg/m3 0.39 µg/m3 88.98 µg/m3 6.43 µg/m3 4.71 µg/m3 0.2 mg/m3 17.07 °C 73.71 % 1.72 m/s 66.96 Deg 1.06 µg/m3
2021-11-24 17:00 2.18 µg/m3 0.28 µg/m3 88.72 µg/m3 4.52 µg/m3 3.72 µg/m3 0.17 mg/m3 17.55 °C 73.38 % 1.29 m/s 183.78 Deg -0.08 µg/m3
2021-11-24 16:00 1.63 µg/m3 0.33 µg/m3 92.85 µg/m3 3.63 µg/m3 2.79 µg/m3 0.17 mg/m3 17.97 °C 73.55 % 1.9 m/s 153.77 Deg 0.03 µg/m3
2021-11-24 15:00 1.46 µg/m3 0.38 µg/m3 94.66 µg/m3 5.16 µg/m3 3.19 µg/m3 0.16 mg/m3 18.23 °C 72.73 % 1.78 m/s 208.54 Deg 0.05 µg/m3
2021-11-24 14:00 1.47 µg/m3 0.38 µg/m3 94.15 µg/m3 5.22 µg/m3 2.79 µg/m3 0.16 mg/m3 18.38 °C 72.24 % 1.79 m/s 202.85 Deg 0.06 µg/m3
2021-11-24 13:00 1.34 µg/m3 0.35 µg/m3 91.79 µg/m3 5.6 µg/m3 3.01 µg/m3 0.17 mg/m3 18.33 °C 72.93 % 2 m/s 258.85 Deg 0.08 µg/m3
2021-11-24 12:00 1.52 µg/m3 0.32 µg/m3 91.15 µg/m3 5.41 µg/m3 3.57 µg/m3 0.17 mg/m3 18.16 °C 74.3 % 2.03 m/s 288.34 Deg 0.08 µg/m3
2021-11-24 11:00 1.63 µg/m3 0.32 µg/m3 90.27 µg/m3 6.75 µg/m3 2.97 µg/m3 0.17 mg/m3 18.32 °C 73.23 % 1.83 m/s 201.61 Deg 0.1 µg/m3
2021-11-24 10:00 1.88 µg/m3 0.34 µg/m3 89.1 µg/m3 4.58 µg/m3 2.23 µg/m3 0.17 mg/m3 18.31 °C 72.57 % 1.23 m/s 200.51 Deg 0.09 µg/m3
2021-11-24 09:00 2.36 µg/m3 0.29 µg/m3 85.18 µg/m3 7.01 µg/m3 3.26 µg/m3 0.17 mg/m3 17.88 °C 74.19 % 1.33 m/s 206.89 Deg 0.11 µg/m3
2021-11-24 08:00 1.29 µg/m3 0.34 µg/m3 93.21 µg/m3 5.86 µg/m3 4.37 µg/m3 0.18 mg/m3 17.15 °C 76.34 % 0.96 m/s 214.13 Deg -0.08 µg/m3
2021-11-24 07:00 1.07 µg/m3 0.3 µg/m3 95.28 µg/m3 6.31 µg/m3 4.35 µg/m3 0.18 mg/m3 16.85 °C 76.56 % 0.95 m/s 207.78 Deg -0.12 µg/m3
2021-11-24 06:00 1.27 µg/m3 0.3 µg/m3 94.93 µg/m3 6.5 µg/m3 4.45 µg/m3 0.17 mg/m3 16.81 °C 76.96 % 1.49 m/s 255.55 Deg -0.12 µg/m3
2021-11-24 05:00 1.66 µg/m3 0.35 µg/m3 93.56 µg/m3 6.05 µg/m3 4.26 µg/m3 0.16 mg/m3 16.7 °C 77.21 % 1.73 m/s 193.57 Deg -0.1 µg/m3
2021-11-24 04:00 1.54 µg/m3 0.35 µg/m3 93.68 µg/m3 6.69 µg/m3 4.48 µg/m3 0.2 mg/m3 16.68 °C 78.09 % 2.03 m/s 262.49 Deg -0.11 µg/m3
2021-11-24 03:00 1.91 µg/m3 0.37 µg/m3 92.51 µg/m3 6.11 µg/m3 4 µg/m3 0.2 mg/m3 16.72 °C 77.96 % 2.34 m/s 188.95 Deg -0.1 µg/m3
2021-11-24 02:00 2 µg/m3 0.29 µg/m3 90.24 µg/m3 5.35 µg/m3 4.72 µg/m3 0.2 mg/m3 16.72 °C 78.72 % 2.4 m/s 186.2 Deg -0.08 µg/m3
2021-11-24 01:00 1.52 µg/m3 0.28 µg/m3 93.16 µg/m3 5.16 µg/m3 4.32 µg/m3 0.19 mg/m3 16.83 °C 78.37 % 2.41 m/s 254.43 Deg -0.08 µg/m3
2021-11-24 00:00 1.47 µg/m3 0.24 µg/m3 93.34 µg/m3 4.97 µg/m3 4.6 µg/m3 0.19 mg/m3 16.79 °C 77.75 % 2.46 m/s 239.83 Deg -0.08 µg/m3
2021-11-23 23:00 1.5 µg/m3 0.27 µg/m3 93.42 µg/m3 4.81 µg/m3 4.66 µg/m3 0.19 mg/m3 16.97 °C 76.54 % 2.59 m/s 243.91 Deg -0.07 µg/m3
2021-11-23 22:00 1.55 µg/m3 0.29 µg/m3 94.11 µg/m3 5.54 µg/m3 3.73 µg/m3 0.19 mg/m3 17.03 °C 75.27 % 2.67 m/s 234.82 Deg -0.07 µg/m3
2021-11-23 21:00 1.64 µg/m3 0.27 µg/m3 95.47 µg/m3 5.46 µg/m3 3.6 µg/m3 0.19 mg/m3 17.11 °C 73.78 % 2.65 m/s 212.38 Deg -0.07 µg/m3
2021-11-23 20:00 1.44 µg/m3 0.3 µg/m3 95.61 µg/m3 5.25 µg/m3 3.06 µg/m3 0.18 mg/m3 17.27 °C 73.85 % 2.82 m/s 205.73 Deg -0.07 µg/m3
2021-11-23 19:00 1.59 µg/m3 0.35 µg/m3 97.12 µg/m3 6.47 µg/m3 3.53 µg/m3 0.19 mg/m3 17.43 °C 73.94 % 3.21 m/s 259.82 Deg -0.07 µg/m3
2021-11-23 18:00 2.41 µg/m3 0.48 µg/m3 97.04 µg/m3 7.84 µg/m3 4.32 µg/m3 0.18 mg/m3 17.59 °C 73.52 % 3.07 m/s 235.85 Deg -0.05 µg/m3
2021-11-23 17:00 3.17 µg/m3 0.63 µg/m3 94.37 µg/m3 8.16 µg/m3 4.23 µg/m3 0.18 mg/m3 17.88 °C 76.94 % 3.08 m/s 228.05 Deg 0.01 µg/m3
2021-11-23 16:00 2.84 µg/m3 0.64 µg/m3 96.68 µg/m3 7.77 µg/m3 5.43 µg/m3 0.18 mg/m3 18.39 °C 78.05 % 3.74 m/s 196.45 Deg 0.18 µg/m3
2021-11-23 15:00 3.39 µg/m3 0.74 µg/m3 95.21 µg/m3 8.36 µg/m3 6.32 µg/m3 0.18 mg/m3 18.77 °C 79.33 % 4.18 m/s 224.43 Deg 0.38 µg/m3
2021-11-23 14:00 3.64 µg/m3 0.56 µg/m3 89.34 µg/m3 10.71 µg/m3 6.62 µg/m3 0.19 mg/m3 19.38 °C 79.92 % 3.79 m/s 234.6 Deg 0.55 µg/m3
2021-11-23 13:00 2.84 µg/m3 0.41 µg/m3 78.88 µg/m3 11.27 µg/m3 5.75 µg/m3 0.2 mg/m3 19.56 °C 78.02 % 3.89 m/s 224.39 Deg 0.41 µg/m3
2021-11-23 12:00 2.2 µg/m3 0.31 µg/m3 75.99 µg/m3 10.79 µg/m3 5.76 µg/m3 0.19 mg/m3 19.43 °C 78.81 % 4.47 m/s 201.34 Deg 0.34 µg/m3
2021-11-23 11:00 1.55 µg/m3 0.45 µg/m3 75.19 µg/m3 11.89 µg/m3 N/A 0.19 mg/m3 19.38 °C 79.11 % 4.72 m/s 157.74 Deg 0.18 µg/m3
2021-11-23 10:00 0.44 µg/m3 41.28 µg/m3 77.65 µg/m3 N/A N/A 0.19 mg/m3 19.52 °C 77.26 % 4.44 m/s 171.83 Deg 1.03 µg/m3
2021-11-23 09:00 1.48 µg/m3 3.13 µg/m3 79.24 µg/m3 N/A N/A 0.18 mg/m3 19.27 °C 77.34 % 4.43 m/s 103.51 Deg 29.89 µg/m3
2021-11-23 08:00 1.88 µg/m3 1.15 µg/m3 80.24 µg/m3 7.01 µg/m3 N/A 0.18 mg/m3 18.92 °C 77.58 % 3.61 m/s 140.61 Deg 0.37 µg/m3
2021-11-23 07:00 4.1 µg/m3 0.49 µg/m3 82.46 µg/m3 5.4 µg/m3 N/A 0.17 mg/m3 18.47 °C 75.68 % 2.65 m/s 86.25 Deg 0.34 µg/m3
2021-11-23 06:00 1.84 µg/m3 0.21 µg/m3 85.43 µg/m3 3.93 µg/m3 N/A 0.16 mg/m3 18.24 °C 73.19 % 2.27 m/s 140.02 Deg 0.35 µg/m3
2021-11-23 05:00 1.39 µg/m3 0.15 µg/m3 88.94 µg/m3 4.5 µg/m3 3.67 µg/m3 0.14 mg/m3 18.36 °C 70.42 % 2.27 m/s 127.83 Deg 0.34 µg/m3
2021-11-23 04:00 1.41 µg/m3 0.71 µg/m3 90.94 µg/m3 4.6 µg/m3 4.1 µg/m3 0.17 mg/m3 18.49 °C 68.65 % 2.81 m/s 208.72 Deg 0.34 µg/m3
2021-11-23 03:00 1.52 µg/m3 0.25 µg/m3 91.9 µg/m3 4.81 µg/m3 3.35 µg/m3 0.17 mg/m3 18.47 °C 69.21 % 2.6 m/s 190.14 Deg 0.34 µg/m3
2021-11-23 02:00 1.69 µg/m3 0.18 µg/m3 90.5 µg/m3 4.85 µg/m3 4.57 µg/m3 0.17 mg/m3 18.35 °C 71.99 % 3.18 m/s 201.34 Deg 0.36 µg/m3
2021-11-23 01:00 1.65 µg/m3 0.17 µg/m3 87.26 µg/m3 4.07 µg/m3 5.3 µg/m3 0.18 mg/m3 18.15 °C 75.21 % 3.6 m/s 157.33 Deg 0.38 µg/m3
2021-11-23 00:00 1.62 µg/m3 0.2 µg/m3 85.4 µg/m3 6.08 µg/m3 4.92 µg/m3 0.18 mg/m3 18.13 °C 76.88 % 3.64 m/s 170.52 Deg 0.35 µg/m3
2021-11-22 23:00 1.77 µg/m3 0.2 µg/m3 83.6 µg/m3 5.56 µg/m3 4.19 µg/m3 0.18 mg/m3 17.99 °C 77.29 % 3.5 m/s 153.71 Deg 0.36 µg/m3
2021-11-22 22:00 1.73 µg/m3 0.2 µg/m3 83.63 µg/m3 5.88 µg/m3 4.94 µg/m3 0.18 mg/m3 18.02 °C 74.41 % 4.17 m/s 147.17 Deg 0.37 µg/m3
2021-11-22 21:00 1.5 µg/m3 0.26 µg/m3 83.63 µg/m3 6.11 µg/m3 3.74 µg/m3 0.18 mg/m3 18.07 °C 74.07 % 4.64 m/s 182.42 Deg 0.38 µg/m3
2021-11-22 20:00 1.43 µg/m3 0.46 µg/m3 87.82 µg/m3 6.55 µg/m3 4.75 µg/m3 0.17 mg/m3 18.18 °C 75.25 % 4.61 m/s 174.2 Deg 0.36 µg/m3
2021-11-22 19:00 1.09 µg/m3 1.36 µg/m3 88.77 µg/m3 6.83 µg/m3 4.06 µg/m3 0.16 mg/m3 18.45 °C 73.75 % 5.17 m/s 148.4 Deg 0.35 µg/m3
2021-11-22 18:00 0.97 µg/m3 3.25 µg/m3 88.48 µg/m3 7.31 µg/m3 3.91 µg/m3 0.17 mg/m3 18.6 °C 74.86 % 5.47 m/s 169.55 Deg 0.36 µg/m3
2021-11-22 17:00 1.07 µg/m3 1.89 µg/m3 88.88 µg/m3 7.84 µg/m3 4.34 µg/m3 0.17 mg/m3 18.82 °C 73.85 % 5.69 m/s 174 Deg 0.36 µg/m3
2021-11-22 16:00 1.23 µg/m3 3.32 µg/m3 87.5 µg/m3 7.63 µg/m3 4.25 µg/m3 0.17 mg/m3 18.85 °C 74.87 % 5.12 m/s 183.97 Deg 0.38 µg/m3
2021-11-22 15:00 1.43 µg/m3 1.82 µg/m3 87.9 µg/m3 9.58 µg/m3 4.35 µg/m3 0.17 mg/m3 19.11 °C 74.14 % 5.16 m/s 185.55 Deg 0.41 µg/m3
2021-11-22 14:00 1.51 µg/m3 1.14 µg/m3 88.1 µg/m3 10.17 µg/m3 6.21 µg/m3 0.17 mg/m3 19.45 °C 73.35 % 5.59 m/s 137.09 Deg 0.4 µg/m3
2021-11-22 13:00 1.53 µg/m3 0.55 µg/m3 89.17 µg/m3 10.28 µg/m3 5.54 µg/m3 0.17 mg/m3 19.47 °C 73.44 % 6.57 m/s 159.09 Deg 0.4 µg/m3
2021-11-22 12:00 1.64 µg/m3 0.34 µg/m3 90.04 µg/m3 11.43 µg/m3 5.47 µg/m3 0.17 mg/m3 19.45 °C 74.41 % 6.21 m/s 173.59 Deg 0.4 µg/m3
2021-11-22 11:00 1.48 µg/m3 0.26 µg/m3 89.06 µg/m3 10.6 µg/m3 4.07 µg/m3 0.16 mg/m3 19.56 °C 72.94 % 5.55 m/s 175.78 Deg 0.39 µg/m3
2021-11-22 10:00 1.56 µg/m3 0.17 µg/m3 88.07 µg/m3 7.14 µg/m3 4.1 µg/m3 0.16 mg/m3 19.12 °C 73.6 % 4.64 m/s 173.15 Deg 0.41 µg/m3
2021-11-22 09:00 1.36 µg/m3 0.17 µg/m3 90.91 µg/m3 11.86 µg/m3 3.81 µg/m3 0.16 mg/m3 18.64 °C 74.44 % 4.76 m/s 164.85 Deg 0.37 µg/m3
2021-11-22 08:00 1.38 µg/m3 0.23 µg/m3 91.08 µg/m3 10.92 µg/m3 7.48 µg/m3 0.16 mg/m3 17.25 °C 83.52 % 4.78 m/s 124.63 Deg 0.35 µg/m3
2021-11-22 07:00 1.94 µg/m3 0.14 µg/m3 88.9 µg/m3 8.25 µg/m3 4.78 µg/m3 0.16 mg/m3 15.34 °C 90.1 % 4.74 m/s 124.55 Deg 0.35 µg/m3
2021-11-22 06:00 2.37 µg/m3 0.1 µg/m3 83.6 µg/m3 9.8 µg/m3 2.75 µg/m3 0.16 mg/m3 15.16 °C 82.77 % 2.6 m/s 161.94 Deg 0.35 µg/m3
2021-11-22 05:00 2.86 µg/m3 0.14 µg/m3 84.59 µg/m3 8.83 µg/m3 4.83 µg/m3 0.13 mg/m3 15.16 °C 81.76 % 3.74 m/s 212.99 Deg 0.37 µg/m3
2021-11-22 04:00 1.46 µg/m3 0.61 µg/m3 89.48 µg/m3 9.77 µg/m3 4.78 µg/m3 0.16 mg/m3 16.41 °C 74.49 % 2.16 m/s 149.63 Deg 0.34 µg/m3
2021-11-22 03:00 1.55 µg/m3 0.21 µg/m3 92.34 µg/m3 6.52 µg/m3 4.57 µg/m3 0.16 mg/m3 17.56 °C 75.06 % 5.96 m/s 172.04 Deg 0.33 µg/m3
2021-11-22 02:00 1.22 µg/m3 0.26 µg/m3 94.62 µg/m3 4.03 µg/m3 4.35 µg/m3 0.18 mg/m3 18.57 °C 71.51 % 4.14 m/s 158.61 Deg 0.34 µg/m3
2021-11-22 01:00 1.21 µg/m3 0.24 µg/m3 94.6 µg/m3 2.92 µg/m3 3.38 µg/m3 0.18 mg/m3 18.43 °C 70.72 % 4.44 m/s 125.94 Deg 0.36 µg/m3
2021-11-22 00:00 1.23 µg/m3 0.17 µg/m3 94.01 µg/m3 2.78 µg/m3 3.21 µg/m3 0.18 mg/m3 18.36 °C 70.39 % 5.37 m/s 180.65 Deg 0.35 µg/m3
2021-11-21 23:00 1.25 µg/m3 0.13 µg/m3 93.39 µg/m3 3.79 µg/m3 3.08 µg/m3 0.18 mg/m3 18.04 °C 73.18 % 4.57 m/s 97.83 Deg 0.34 µg/m3
2021-11-21 22:00 1.27 µg/m3 0.15 µg/m3 92.44 µg/m3 3.37 µg/m3 3.4 µg/m3 0.17 mg/m3 17.78 °C 70.55 % 3.47 m/s 107.98 Deg 0.34 µg/m3
2021-11-21 21:00 1.25 µg/m3 0.1 µg/m3 93.68 µg/m3 3.21 µg/m3 3.59 µg/m3 0.17 mg/m3 17.88 °C 67.27 % 3.04 m/s 90.17 Deg 0.34 µg/m3
2021-11-21 20:00 1.29 µg/m3 0.14 µg/m3 93.37 µg/m3 3.77 µg/m3 3.93 µg/m3 0.17 mg/m3 17.76 °C 69.22 % 3.26 m/s 162.16 Deg 0.34 µg/m3
2021-11-21 19:00 1.59 µg/m3 0.14 µg/m3 90.82 µg/m3 4.71 µg/m3 4.28 µg/m3 0.17 mg/m3 17.58 °C 68.89 % 2.48 m/s 165.95 Deg 0.36 µg/m3
2021-11-21 18:00 1.62 µg/m3 0.16 µg/m3 91.73 µg/m3 4.49 µg/m3 5.35 µg/m3 0.17 mg/m3 17.63 °C 69.69 % 4.21 m/s 196.41 Deg 0.37 µg/m3
2021-11-21 17:00 1.72 µg/m3 0.12 µg/m3 90.31 µg/m3 3.56 µg/m3 4.69 µg/m3 0.18 mg/m3 17.57 °C 70.15 % 3.96 m/s 186.51 Deg 0.39 µg/m3
2021-11-21 16:00 1.72 µg/m3 0.11 µg/m3 90.12 µg/m3 4.12 µg/m3 3.63 µg/m3 0.18 mg/m3 17.82 °C 68.55 % 4.51 m/s 128.18 Deg 0.4 µg/m3
2021-11-21 15:00 1.65 µg/m3 0.15 µg/m3 87.86 µg/m3 2.19 µg/m3 4.08 µg/m3 0.18 mg/m3 18.22 °C 70.46 % 4.15 m/s 162.72 Deg 0.42 µg/m3
2021-11-21 14:00 1.72 µg/m3 0.15 µg/m3 87.14 µg/m3 2.65 µg/m3 4.64 µg/m3 0.18 mg/m3 18.4 °C 71.7 % 4.18 m/s 192.7 Deg 0.45 µg/m3
2021-11-21 13:00 3.84 µg/m3 0.23 µg/m3 85.25 µg/m3 3.72 µg/m3 3.65 µg/m3 0.18 mg/m3 18.35 °C 72.48 % 4.42 m/s 194.84 Deg 0.93 µg/m3
2021-11-21 12:00 2.29 µg/m3 0.11 µg/m3 85.05 µg/m3 4.95 µg/m3 4.13 µg/m3 0.19 mg/m3 18.16 °C 74.76 % 3.72 m/s 184.34 Deg 0.48 µg/m3
2021-11-21 11:00 2.45 µg/m3 0.17 µg/m3 84.32 µg/m3 5.05 µg/m3 5.12 µg/m3 0.19 mg/m3 18.11 °C 73.87 % 2.8 m/s 203.57 Deg 0.51 µg/m3
2021-11-21 10:00 2.47 µg/m3 0.14 µg/m3 85.07 µg/m3 3.91 µg/m3 4.75 µg/m3 0.19 mg/m3 18.17 °C 75.29 % 2.45 m/s 196.7 Deg 0.5 µg/m3
2021-11-21 09:00 2.76 µg/m3 0.16 µg/m3 83.19 µg/m3 5.24 µg/m3 4.2 µg/m3 0.19 mg/m3 17.85 °C 74.07 % 2.72 m/s 188.66 Deg 0.51 µg/m3
2021-11-21 08:00 2.45 µg/m3 0.15 µg/m3 82.82 µg/m3 4.7 µg/m3 4.44 µg/m3 0.19 mg/m3 17.47 °C 73.96 % 2.27 m/s 213.67 Deg 0.42 µg/m3
2021-11-21 07:00 2.35 µg/m3 0.17 µg/m3 82.42 µg/m3 4.09 µg/m3 4.41 µg/m3 0.19 mg/m3 17.37 °C 75.2 % 2.53 m/s 165.47 Deg 0.37 µg/m3
2021-11-21 06:00 2.83 µg/m3 0.18 µg/m3 82.47 µg/m3 4.25 µg/m3 4.01 µg/m3 0.19 mg/m3 17.26 °C 76.57 % 1.77 m/s 215.16 Deg 0.37 µg/m3
2021-11-21 05:00 2.04 µg/m3 0.15 µg/m3 85.14 µg/m3 4.85 µg/m3 4 µg/m3 0.16 mg/m3 16.89 °C 77.69 % 1.88 m/s 188.23 Deg 0.35 µg/m3
2021-11-21 04:00 2.02 µg/m3 0.61 µg/m3 88.84 µg/m3 4.55 µg/m3 3.93 µg/m3 0.2 mg/m3 16.81 °C 76.74 % 1.48 m/s 165.32 Deg 0.33 µg/m3
2021-11-21 03:00 1.99 µg/m3 0.17 µg/m3 90.75 µg/m3 4.01 µg/m3 4.42 µg/m3 0.19 mg/m3 16.93 °C 74.43 % 1.34 m/s 199.81 Deg 0.35 µg/m3
2021-11-21 02:00 2.76 µg/m3 0.23 µg/m3 86.47 µg/m3 3.93 µg/m3 3.69 µg/m3 0.19 mg/m3 16.95 °C 74.55 % 1.83 m/s 200.5 Deg 0.33 µg/m3
2021-11-21 01:00 2.72 µg/m3 0.24 µg/m3 90.47 µg/m3 3.69 µg/m3 3.52 µg/m3 0.18 mg/m3 17.22 °C 71.12 % 2.32 m/s 108.16 Deg 0.34 µg/m3
2021-11-21 00:00 2.59 µg/m3 0.23 µg/m3 92.02 µg/m3 4.7 µg/m3 3.94 µg/m3 0.19 mg/m3 17.16 °C 73.93 % 3.08 m/s 210.04 Deg 0.36 µg/m3
2021-11-20 23:00 2.9 µg/m3 0.2 µg/m3 92.94 µg/m3 4.07 µg/m3 4.44 µg/m3 0.18 mg/m3 17.06 °C 75.88 % 3.35 m/s 187.44 Deg 0.36 µg/m3
2021-11-20 22:00 2.51 µg/m3 0.19 µg/m3 93.17 µg/m3 3.61 µg/m3 4.38 µg/m3 0.18 mg/m3 17.03 °C 75.22 % 2.95 m/s 237.11 Deg 0.35 µg/m3
2021-11-20 21:00 2.59 µg/m3 0.25 µg/m3 93.15 µg/m3 4.52 µg/m3 4.78 µg/m3 0.18 mg/m3 17.03 °C 74.94 % 2.76 m/s 250.6 Deg 0.35 µg/m3
2021-11-20 20:00 3.13 µg/m3 0.24 µg/m3 92.39 µg/m3 4.22 µg/m3 4.44 µg/m3 0.18 mg/m3 17.04 °C 73.68 % 2.44 m/s 226.39 Deg 0.35 µg/m3
2021-11-20 19:00 2.76 µg/m3 0.22 µg/m3 92.4 µg/m3 4.58 µg/m3 4.59 µg/m3 0.18 mg/m3 16.84 °C 74.59 % 1.78 m/s 216.51 Deg 0.33 µg/m3
2021-11-20 18:00 3.49 µg/m3 0.24 µg/m3 90.72 µg/m3 5.35 µg/m3 4.1 µg/m3 0.19 mg/m3 16.97 °C 74.77 % 2.17 m/s 264.04 Deg 0.33 µg/m3
2021-11-20 17:00 3.35 µg/m3 0.19 µg/m3 90.43 µg/m3 5.54 µg/m3 4.18 µg/m3 0.19 mg/m3 17.43 °C 72.6 % 2.63 m/s 256.95 Deg 0.38 µg/m3
2021-11-20 16:00 2.36 µg/m3 0.19 µg/m3 89.46 µg/m3 4.25 µg/m3 4.34 µg/m3 0.18 mg/m3 17.94 °C 66.58 % 3.13 m/s 251 Deg 0.43 µg/m3
2021-11-20 15:00 2.19 µg/m3 0.18 µg/m3 91 µg/m3 4.97 µg/m3 4.47 µg/m3 0.18 mg/m3 18.15 °C 67.2 % 3.29 m/s 242.76 Deg 0.47 µg/m3
2021-11-20 14:00 2.26 µg/m3 0.18 µg/m3 87.51 µg/m3 3.91 µg/m3 4.47 µg/m3 0.18 mg/m3 18.29 °C 69.09 % 3.64 m/s 231 Deg 0.53 µg/m3
2021-11-20 13:00 2.44 µg/m3 0.19 µg/m3 87.97 µg/m3 4.2 µg/m3 4.53 µg/m3 0.18 mg/m3 18.48 °C 66.98 % 3.64 m/s 200.48 Deg 0.54 µg/m3
2021-11-20 12:00 2.83 µg/m3 0.22 µg/m3 86.9 µg/m3 4.55 µg/m3 4.41 µg/m3 0.18 mg/m3 18.23 °C 70.7 % 3.58 m/s 258.32 Deg 0.63 µg/m3
2021-11-20 11:00 2.73 µg/m3 0.21 µg/m3 82.93 µg/m3 4.68 µg/m3 4.23 µg/m3 0.18 mg/m3 18.08 °C 68.95 % 3.94 m/s 185.65 Deg 0.67 µg/m3
2021-11-20 10:00 3.34 µg/m3 0.3 µg/m3 79.81 µg/m3 5.09 µg/m3 4 µg/m3 0.18 mg/m3 17.73 °C 74.04 % 4.12 m/s 182.33 Deg 0.81 µg/m3
2021-11-20 09:00 4.35 µg/m3 0.34 µg/m3 78.64 µg/m3 4.26 µg/m3 4.12 µg/m3 0.18 mg/m3 17.54 °C 78.17 % 3.94 m/s 236.82 Deg 0.8 µg/m3
2021-11-20 08:00 3.59 µg/m3 0.39 µg/m3 81.56 µg/m3 4.62 µg/m3 4.14 µg/m3 0.17 mg/m3 17.36 °C 79.52 % 2.74 m/s 246.88 Deg 0.47 µg/m3
2021-11-20 07:00 2.48 µg/m3 0.48 µg/m3 89.37 µg/m3 4.98 µg/m3 4.17 µg/m3 0.16 mg/m3 17.02 °C 77.32 % 1.86 m/s 219.25 Deg 0.33 µg/m3
2021-11-20 06:00 2.53 µg/m3 0.5 µg/m3 88.56 µg/m3 5.54 µg/m3 4.46 µg/m3 0.16 mg/m3 17.01 °C 79.12 % 1.54 m/s 199.18 Deg 0.34 µg/m3
2021-11-20 05:00 2.68 µg/m3 0.59 µg/m3 86.27 µg/m3 6.42 µg/m3 4.35 µg/m3 0.15 mg/m3 16.85 °C 80.58 % 1.54 m/s 167.77 Deg 0.35 µg/m3
2021-11-20 04:00 3.17 µg/m3 1.02 µg/m3 87.62 µg/m3 6.86 µg/m3 4.76 µg/m3 0.18 mg/m3 16.97 °C 80.19 % 0.99 m/s 158.05 Deg 0.33 µg/m3
2021-11-20 03:00 2.7 µg/m3 0.7 µg/m3 88.95 µg/m3 6.69 µg/m3 4.58 µg/m3 0.17 mg/m3 17.03 °C 78.83 % 1.48 m/s 143.66 Deg 0.31 µg/m3
2021-11-20 02:00 3.78 µg/m3 0.62 µg/m3 86.78 µg/m3 5.67 µg/m3 4.18 µg/m3 0.17 mg/m3 17.07 °C 79.02 % 1.53 m/s 126.29 Deg 0.33 µg/m3
2021-11-20 01:00 3.14 µg/m3 0.54 µg/m3 91.45 µg/m3 5.35 µg/m3 4.23 µg/m3 0.16 mg/m3 17.18 °C 76.34 % 1.21 m/s 121.15 Deg 0.33 µg/m3
2021-11-20 00:00 2.85 µg/m3 0.52 µg/m3 91.47 µg/m3 6.26 µg/m3 3.87 µg/m3 0.17 mg/m3 17.16 °C 76.51 % 1.3 m/s 111.37 Deg 0.34 µg/m3
2021-11-19 23:00 3.86 µg/m3 0.59 µg/m3 90 µg/m3 6.23 µg/m3 4.92 µg/m3 0.17 mg/m3 17.06 °C 78.33 % 1.1 m/s 67.85 Deg 0.33 µg/m3
2021-11-19 22:00 4.3 µg/m3 0.57 µg/m3 86.36 µg/m3 5.73 µg/m3 4.92 µg/m3 0.17 mg/m3 17 °C 78.31 % 1.88 m/s 222.26 Deg 0.33 µg/m3
2021-11-19 21:00 4.49 µg/m3 0.52 µg/m3 83.2 µg/m3 5.56 µg/m3 5.07 µg/m3 0.17 mg/m3 16.86 °C 79.91 % 2.13 m/s 157.27 Deg 0.33 µg/m3
2021-11-19 20:00 3.05 µg/m3 0.56 µg/m3 84.13 µg/m3 5.01 µg/m3 4.35 µg/m3 0.17 mg/m3 16.76 °C 80.8 % 2.38 m/s 92.05 Deg 0.34 µg/m3
2021-11-19 19:00 3.18 µg/m3 0.53 µg/m3 87.29 µg/m3 8.04 µg/m3 4.61 µg/m3 0.16 mg/m3 16.97 °C 81.43 % 3.23 m/s 52.71 Deg 0.35 µg/m3
2021-11-19 18:00 3.52 µg/m3 0.9 µg/m3 89.32 µg/m3 8.87 µg/m3 4.15 µg/m3 0.16 mg/m3 16.98 °C 81.74 % 2.85 m/s 59.12 Deg 0.36 µg/m3
2021-11-19 17:00 4.56 µg/m3 1.77 µg/m3 93.79 µg/m3 9.32 µg/m3 4.12 µg/m3 0.16 mg/m3 17.49 °C 77.48 % 3.33 m/s 73.55 Deg 0.4 µg/m3
2021-11-19 16:00 3.78 µg/m3 2.42 µg/m3 99.19 µg/m3 7.3 µg/m3 4.04 µg/m3 0.17 mg/m3 18.2 °C 74.91 % 4.03 m/s 258.83 Deg 0.73 µg/m3
2021-11-19 15:00 3.51 µg/m3 1.27 µg/m3 98.51 µg/m3 8.09 µg/m3 4.38 µg/m3 0.16 mg/m3 18.37 °C 74.16 % 4.12 m/s 137.45 Deg 0.56 µg/m3
2021-11-19 14:00 4.54 µg/m3 1.49 µg/m3 96.74 µg/m3 7.65 µg/m3 4.51 µg/m3 0.16 mg/m3 18.43 °C 75.52 % 4.34 m/s 187.71 Deg 0.93 µg/m3
2021-11-19 13:00 3.99 µg/m3 1.72 µg/m3 91.41 µg/m3 4.93 µg/m3 5.32 µg/m3 0.16 mg/m3 18.26 °C 77.29 % 4.19 m/s 110.54 Deg 0.63 µg/m3
2021-11-19 12:00 6.57 µg/m3 1.06 µg/m3 84.63 µg/m3 2.95 µg/m3 4.55 µg/m3 0.17 mg/m3 18.33 °C 76.98 % 2.98 m/s 203.14 Deg 2.07 µg/m3
2021-11-19 11:00 5.11 µg/m3 0.37 µg/m3 85.17 µg/m3 5.32 µg/m3 4.21 µg/m3 0.16 mg/m3 18.32 °C 75.75 % 2.93 m/s 271.15 Deg 1.13 µg/m3
2021-11-19 10:00 3.58 µg/m3 0.22 µg/m3 83.59 µg/m3 5.92 µg/m3 3.93 µg/m3 0.16 mg/m3 18.06 °C 76.61 % 2.57 m/s 288.99 Deg 0.71 µg/m3
2021-11-19 09:00 3.11 µg/m3 0.13 µg/m3 85.7 µg/m3 5.21 µg/m3 3.19 µg/m3 0.15 mg/m3 17.88 °C 75.48 % 2.83 m/s 123.9 Deg 0.59 µg/m3
2021-11-19 08:00 3.26 µg/m3 0.22 µg/m3 87.37 µg/m3 4.74 µg/m3 2.69 µg/m3 0.15 mg/m3 17.44 °C 76.49 % 2.89 m/s 303.45 Deg 0.43 µg/m3
2021-11-19 07:00 2.64 µg/m3 0.18 µg/m3 89.79 µg/m3 5.27 µg/m3 3.29 µg/m3 0.15 mg/m3 17.36 °C 77.18 % 3.16 m/s 328.73 Deg 0.35 µg/m3
2021-11-19 06:00 3.08 µg/m3 0.19 µg/m3 89.15 µg/m3 5.33 µg/m3 3.7 µg/m3 0.14 mg/m3 17.34 °C 78.3 % 2.74 m/s 289.54 Deg 0.35 µg/m3
2021-11-19 05:00 2.55 µg/m3 0.16 µg/m3 89.79 µg/m3 5.8 µg/m3 4.57 µg/m3 0.12 mg/m3 17.45 °C 76.76 % 2.62 m/s 289.82 Deg 0.35 µg/m3
2021-11-19 04:00 2.43 µg/m3 0.79 µg/m3 91.15 µg/m3 6.61 µg/m3 3.99 µg/m3 0.16 mg/m3 17.44 °C 75.87 % 2.88 m/s 309.04 Deg 0.35 µg/m3
2021-11-19 03:00 2.64 µg/m3 0.19 µg/m3 90.95 µg/m3 6.11 µg/m3 3.99 µg/m3 0.15 mg/m3 17.53 °C 77.02 % 3.28 m/s 327.24 Deg 0.37 µg/m3
2021-11-19 02:00 1.66 µg/m3 0.11 µg/m3 95.32 µg/m3 4.46 µg/m3 4.27 µg/m3 0.16 mg/m3 17.5 °C 76.41 % 3.55 m/s 321.76 Deg 0.35 µg/m3
2021-11-19 01:00 2.06 µg/m3 0.15 µg/m3 96.96 µg/m3 2.8 µg/m3 2.87 µg/m3 0.16 mg/m3 17.38 °C 76.22 % 3.15 m/s 314.68 Deg 0.35 µg/m3
2021-11-19 00:00 2.76 µg/m3 0.19 µg/m3 92.86 µg/m3 2.41 µg/m3 2.58 µg/m3 0.17 mg/m3 17.54 °C 77.71 % 3.5 m/s 300.43 Deg 0.34 µg/m3
2021-11-18 23:00 3.05 µg/m3 0.2 µg/m3 88.73 µg/m3 3.56 µg/m3 3.33 µg/m3 0.18 mg/m3 17.55 °C 78.89 % 3.09 m/s 264.06 Deg 0.34 µg/m3
2021-11-18 22:00 3.84 µg/m3 0.2 µg/m3 87.18 µg/m3 2.92 µg/m3 3.37 µg/m3 0.19 mg/m3 17.72 °C 77.88 % 4 m/s 273.91 Deg 0.35 µg/m3
2021-11-18 21:00 2.53 µg/m3 0.17 µg/m3 90.96 µg/m3 3.63 µg/m3 2.79 µg/m3 0.19 mg/m3 17.69 °C 77.99 % 3.76 m/s 280.5 Deg 0.36 µg/m3
2021-11-18 20:00 2.57 µg/m3 0.17 µg/m3 90.88 µg/m3 2.8 µg/m3 2.95 µg/m3 0.19 mg/m3 17.74 °C 77.25 % 3.74 m/s 304.86 Deg 0.36 µg/m3
2021-11-18 19:00 1.73 µg/m3 0.2 µg/m3 90.62 µg/m3 3.88 µg/m3 3.69 µg/m3 0.19 mg/m3 17.79 °C 76.72 % 3.96 m/s 269.92 Deg 0.36 µg/m3
2021-11-18 18:00 1.93 µg/m3 0.4 µg/m3 91.61 µg/m3 4.58 µg/m3 4.55 µg/m3 0.18 mg/m3 17.91 °C 76.01 % 3.42 m/s 253.68 Deg 0.36 µg/m3
2021-11-18 17:00 2.19 µg/m3 0.78 µg/m3 92.34 µg/m3 8.03 µg/m3 5.29 µg/m3 0.18 mg/m3 18.22 °C 75.15 % 3.22 m/s 156.77 Deg 0.37 µg/m3
2021-11-18 16:00 4.93 µg/m3 1.73 µg/m3 89.38 µg/m3 8.48 µg/m3 5.19 µg/m3 0.19 mg/m3 18.77 °C 72.79 % 3.56 m/s 204.74 Deg 17.51 µg/m3
2021-11-18 15:00 12.48 µg/m3 2.34 µg/m3 85.37 µg/m3 4.97 µg/m3 4.19 µg/m3 0.18 mg/m3 19.28 °C 68.8 % 4.07 m/s 194.85 Deg 14.16 µg/m3
2021-11-18 14:00 2.8 µg/m3 1.21 µg/m3 94.43 µg/m3 1.46 µg/m3 3.62 µg/m3 0.18 mg/m3 19.17 °C 67.55 % 4.05 m/s 200.72 Deg 2.73 µg/m3
2021-11-18 13:00 2.66 µg/m3 0.6 µg/m3 95.49 µg/m3 1.59 µg/m3 3.73 µg/m3 0.18 mg/m3 19.3 °C 66.18 % 4.51 m/s 210.75 Deg 0.48 µg/m3
2021-11-18 12:00 2.81 µg/m3 0.19 µg/m3 94.07 µg/m3 3.18 µg/m3 4.23 µg/m3 0.17 mg/m3 19.08 °C 66.76 % 4.19 m/s 175.06 Deg 0.49 µg/m3
2021-11-18 11:00 3.12 µg/m3 0.14 µg/m3 94.16 µg/m3 4.01 µg/m3 3.24 µg/m3 0.17 mg/m3 18.89 °C 70.72 % 3.67 m/s 191.64 Deg 0.52 µg/m3
2021-11-18 10:00 2.96 µg/m3 0.15 µg/m3 94.14 µg/m3 2.35 µg/m3 3.24 µg/m3 0.17 mg/m3 18.67 °C 70.83 % 3.61 m/s 170.72 Deg 0.54 µg/m3
2021-11-18 09:00 3.09 µg/m3 0.13 µg/m3 91.34 µg/m3 3.24 µg/m3 3.92 µg/m3 0.17 mg/m3 18.25 °C 72.61 % 3.02 m/s 169.31 Deg 0.5 µg/m3
2021-11-18 08:00 2.69 µg/m3 0.14 µg/m3 92.81 µg/m3 3.75 µg/m3 2.5 µg/m3 0.17 mg/m3 17.96 °C 71.97 % 3.7 m/s 187.76 Deg 0.42 µg/m3
2021-11-18 07:00 2.43 µg/m3 0.15 µg/m3 94.97 µg/m3 3.63 µg/m3 3.35 µg/m3 0.17 mg/m3 17.69 °C 72.23 % 3.72 m/s 268.37 Deg 0.37 µg/m3
2021-11-18 06:00 2.58 µg/m3 0.18 µg/m3 96.78 µg/m3 4.78 µg/m3 4.08 µg/m3 0.16 mg/m3 17.56 °C 73.33 % 3.21 m/s 227.65 Deg 0.36 µg/m3
2021-11-18 05:00 2.53 µg/m3 0.14 µg/m3 96.12 µg/m3 4.46 µg/m3 2.91 µg/m3 0.15 mg/m3 17.48 °C 75.22 % 2.44 m/s 255.17 Deg 0.36 µg/m3
2021-11-18 04:00 2.39 µg/m3 0.79 µg/m3 96.78 µg/m3 2.8 µg/m3 2.74 µg/m3 0.18 mg/m3 17.46 °C 75.28 % 2.46 m/s 241.89 Deg 0.35 µg/m3
2021-11-18 03:00 2.67 µg/m3 0.2 µg/m3 96.62 µg/m3 2.29 µg/m3 2.57 µg/m3 0.17 mg/m3 17.49 °C 73.41 % 2.9 m/s 244.17 Deg 0.35 µg/m3
2021-11-18 02:00 2.42 µg/m3 0.19 µg/m3 96.46 µg/m3 1.9 µg/m3 3.3 µg/m3 0.18 mg/m3 17.44 °C 72.32 % 3.14 m/s 213.23 Deg 0.37 µg/m3
2021-11-18 01:00 4.06 µg/m3 0.19 µg/m3 92.42 µg/m3 1.84 µg/m3 3.57 µg/m3 0.19 mg/m3 17.48 °C 71.24 % 3.3 m/s 229.57 Deg 0.36 µg/m3
2021-11-18 00:00 2.36 µg/m3 0.17 µg/m3 94.28 µg/m3 2.48 µg/m3 3.08 µg/m3 0.18 mg/m3 17.61 °C 68.45 % 3.47 m/s 195.94 Deg 0.38 µg/m3
2021-11-17 23:00 2.39 µg/m3 0.18 µg/m3 93.91 µg/m3 3.75 µg/m3 3.71 µg/m3 0.18 mg/m3 17.59 °C 67.62 % 3.1 m/s 189.78 Deg 0.36 µg/m3
2021-11-17 22:00 2.65 µg/m3 0.15 µg/m3 93.62 µg/m3 3.44 µg/m3 4.13 µg/m3 0.18 mg/m3 17.62 °C 70.35 % 3.18 m/s 189.32 Deg 0.37 µg/m3
2021-11-17 21:00 2.54 µg/m3 0.14 µg/m3 93.13 µg/m3 5.35 µg/m3 3.64 µg/m3 0.18 mg/m3 17.52 °C 71.62 % 2.51 m/s 260.32 Deg 0.36 µg/m3
2021-11-17 20:00 2.41 µg/m3 0.14 µg/m3 94.04 µg/m3 5.29 µg/m3 4.31 µg/m3 0.18 mg/m3 17.69 °C 71.68 % 2.76 m/s 248.62 Deg 0.36 µg/m3
2021-11-17 19:00 2.37 µg/m3 0.21 µg/m3 95.56 µg/m3 9.75 µg/m3 4.53 µg/m3 0.17 mg/m3 17.91 °C 71.62 % 3.45 m/s 255.42 Deg 0.35 µg/m3
2021-11-17 18:00 4.15 µg/m3 0.24 µg/m3 95.58 µg/m3 11.09 µg/m3 5.28 µg/m3 0.17 mg/m3 18.06 °C 72.04 % 3.79 m/s 164 Deg 0.36 µg/m3
2021-11-17 17:00 2.37 µg/m3 0.21 µg/m3 98.43 µg/m3 11.67 µg/m3 5.19 µg/m3 0.17 mg/m3 18.55 °C 71.45 % 5.25 m/s 232.76 Deg 0.38 µg/m3
2021-11-17 16:00 2.58 µg/m3 0.26 µg/m3 93.8 µg/m3 6.18 µg/m3 4.01 µg/m3 0.17 mg/m3 18.95 °C 70.8 % 5.49 m/s 208.08 Deg 0.44 µg/m3
2021-11-17 15:00 2.2 µg/m3 0.28 µg/m3 86.6 µg/m3 10.26 µg/m3 3.45 µg/m3 0.17 mg/m3 19.14 °C 67.19 % 6.35 m/s 168.95 Deg 0.46 µg/m3
2021-11-17 14:00 2.28 µg/m3 0.79 µg/m3 83.73 µg/m3 11.09 µg/m3 3.66 µg/m3 0.18 mg/m3 19.15 °C 69.71 % 6.41 m/s 191.34 Deg 0.51 µg/m3
2021-11-17 13:00 2.02 µg/m3 0.38 µg/m3 84.78 µg/m3 15.94 µg/m3 4.39 µg/m3 0.17 mg/m3 19.13 °C 69.41 % 6.14 m/s 126.99 Deg 0.43 µg/m3
2021-11-17 12:00 1.83 µg/m3 1.38 µg/m3 84.37 µg/m3 32.4 µg/m3 4.6 µg/m3 0.17 mg/m3 19.28 °C 69.75 % 6.03 m/s 154.7 Deg 0.4 µg/m3
2021-11-17 11:00 2.14 µg/m3 1.03 µg/m3 85.95 µg/m3 28.51 µg/m3 6.61 µg/m3 0.16 mg/m3 19.47 °C 68.01 % 5.5 m/s 143.34 Deg 0.48 µg/m3
2021-11-17 10:00 1.88 µg/m3 0.7 µg/m3 85.65 µg/m3 25.13 µg/m3 7.66 µg/m3 0.16 mg/m3 19.64 °C 68.59 % 4.92 m/s 169.59 Deg 0.43 µg/m3
2021-11-17 09:00 2.1 µg/m3 0.96 µg/m3 85.24 µg/m3 24.62 µg/m3 7.75 µg/m3 0.16 mg/m3 19.61 °C 71.57 % 5.75 m/s 157.41 Deg 0.44 µg/m3
2021-11-17 08:00 2.34 µg/m3 1.02 µg/m3 82.36 µg/m3 29.15 µg/m3 8.31 µg/m3 0.17 mg/m3 19.66 °C 77.58 % 5.26 m/s 225.51 Deg 0.4 µg/m3
2021-11-17 07:00 2.35 µg/m3 0.86 µg/m3 82.21 µg/m3 22.89 µg/m3 6.17 µg/m3 0.17 mg/m3 20.14 °C 80.09 % 5.68 m/s 190.46 Deg 0.34 µg/m3
2021-11-17 06:00 2.88 µg/m3 0.2 µg/m3 80.13 µg/m3 20.73 µg/m3 5.26 µg/m3 0.16 mg/m3 21.08 °C 74.17 % 8 m/s 152.56 Deg 0.35 µg/m3
2021-11-17 05:00 1.63 µg/m3 0.1 µg/m3 85.65 µg/m3 19.19 µg/m3 6.48 µg/m3 0.14 mg/m3 20.85 °C 78.78 % 7.5 m/s 144.92 Deg 0.36 µg/m3
2021-11-17 04:00 1.58 µg/m3 0.14 µg/m3 90.97 µg/m3 13.71 µg/m3 5.88 µg/m3 0.17 mg/m3 20.43 °C 78.06 % 6.57 m/s 117.94 Deg 0.34 µg/m3
2021-11-17 03:00 1.39 µg/m3 0.09 µg/m3 93.69 µg/m3 13.01 µg/m3 5.66 µg/m3 0.16 mg/m3 20.14 °C 75.79 % 7.52 m/s 103.76 Deg 0.35 µg/m3
2021-11-17 02:00 1.65 µg/m3 0.13 µg/m3 98.16 µg/m3 14.41 µg/m3 5.73 µg/m3 0.18 mg/m3 19.82 °C 75.17 % 7.93 m/s 93.89 Deg 0.35 µg/m3
2021-11-17 01:00 1.94 µg/m3 0.1 µg/m3 94.58 µg/m3 18.68 µg/m3 6.15 µg/m3 0.17 mg/m3 19.29 °C 78.44 % 6.7 m/s 48.71 Deg 0.33 µg/m3
2021-11-17 00:00 2.06 µg/m3 0.09 µg/m3 90.99 µg/m3 17.79 µg/m3 5.16 µg/m3 0.16 mg/m3 19.29 °C 80.74 % 6.04 m/s 61.6 Deg 0.35 µg/m3
2021-11-16 23:00 1.98 µg/m3 0.13 µg/m3 88.5 µg/m3 18.36 µg/m3 5.93 µg/m3 0.16 mg/m3 19.75 °C 79.53 % 5.53 m/s 94.71 Deg 0.35 µg/m3
2021-11-16 22:00 2.18 µg/m3 0.15 µg/m3 86.44 µg/m3 18.49 µg/m3 6.15 µg/m3 0.16 mg/m3 19.72 °C 81.07 % 4.64 m/s 133.12 Deg 0.34 µg/m3
2021-11-16 21:00 2.27 µg/m3 0.24 µg/m3 86.26 µg/m3 18.24 µg/m3 6.38 µg/m3 0.17 mg/m3 19.89 °C 79.14 % 4.31 m/s 100.21 Deg 0.36 µg/m3
2021-11-16 20:00 1.98 µg/m3 0.43 µg/m3 83.99 µg/m3 16.96 µg/m3 6.65 µg/m3 0.16 mg/m3 20.14 °C 77.29 % 3.82 m/s 137.27 Deg 0.35 µg/m3
2021-11-16 19:00 2.16 µg/m3 0.66 µg/m3 81.54 µg/m3 18.36 µg/m3 6.61 µg/m3 0.16 mg/m3 20.07 °C 79.17 % 4.75 m/s 152.06 Deg 0.34 µg/m3
2021-11-16 18:00 2.88 µg/m3 0.8 µg/m3 83.78 µg/m3 22.83 µg/m3 6.25 µg/m3 0.16 mg/m3 20.4 °C 78.76 % 5.68 m/s 102.57 Deg 0.36 µg/m3
2021-11-16 17:00 2.87 µg/m3 0.49 µg/m3 82.65 µg/m3 23.6 µg/m3 6.64 µg/m3 0.16 mg/m3 20.89 °C 76.5 % 5.91 m/s 150.11 Deg 0.41 µg/m3
2021-11-16 16:00 3.55 µg/m3 0.53 µg/m3 81.06 µg/m3 22.51 µg/m3 6.87 µg/m3 0.16 mg/m3 21.1 °C 77.26 % 6.26 m/s 144.34 Deg 0.61 µg/m3
2021-11-16 15:00 3.44 µg/m3 0.56 µg/m3 80.85 µg/m3 21.36 µg/m3 6.65 µg/m3 0.16 mg/m3 21.25 °C 76.96 % 5.83 m/s 105.35 Deg 0.51 µg/m3
2021-11-16 14:00 2.91 µg/m3 0.59 µg/m3 81.58 µg/m3 20.21 µg/m3 6.5 µg/m3 0.16 mg/m3 21.39 °C 73.85 % 5.07 m/s 133.54 Deg 0.5 µg/m3
2021-11-16 13:00 3.05 µg/m3 0.48 µg/m3 89.85 µg/m3 16 µg/m3 6.72 µg/m3 0.17 mg/m3 21.6 °C 76.24 % 6.81 m/s 96.12 Deg 0.54 µg/m3
2021-11-16 12:00 4.13 µg/m3 0.42 µg/m3 102.16 µg/m3 13.13 µg/m3 5.68 µg/m3 0.17 mg/m3 21.3 °C 74.03 % 7.7 m/s 108.28 Deg 0.75 µg/m3
2021-11-16 11:00 2.89 µg/m3 0.31 µg/m3 100.87 µg/m3 11.22 µg/m3 6.05 µg/m3 0.17 mg/m3 20.73 °C 72.48 % 7.24 m/s 87.72 Deg 0.54 µg/m3
2021-11-16 10:00 2.51 µg/m3 0.35 µg/m3 97.4 µg/m3 9.69 µg/m3 4.72 µg/m3 0.16 mg/m3 20.45 °C 71.71 % 7.72 m/s 93.22 Deg 0.51 µg/m3
2021-11-16 09:00 3.68 µg/m3 0.56 µg/m3 91.19 µg/m3 7.84 µg/m3 5.02 µg/m3 0.17 mg/m3 19.71 °C 75.41 % 6.24 m/s 116.35 Deg 0.62 µg/m3
2021-11-16 08:00 3.75 µg/m3 0.7 µg/m3 90.39 µg/m3 8.09 µg/m3 4.87 µg/m3 0.18 mg/m3 18.66 °C 78.84 % 5.31 m/s 48.44 Deg 0.44 µg/m3
2021-11-16 07:00 7.59 µg/m3 0.3 µg/m3 79.46 µg/m3 7.26 µg/m3 2.96 µg/m3 0.18 mg/m3 17.55 °C 83.03 % 5.03 m/s 94.35 Deg 0.37 µg/m3
2021-11-16 06:00 3.58 µg/m3 0.24 µg/m3 86.25 µg/m3 7.02 µg/m3 4.05 µg/m3 0.16 mg/m3 17.68 °C 82.15 % 4.93 m/s 67.77 Deg 0.35 µg/m3
2021-11-16 05:00 2.72 µg/m3 0.25 µg/m3 86.77 µg/m3 7.14 µg/m3 3.57 µg/m3 0.13 mg/m3 17.49 °C 81.48 % 4.72 m/s 134.09 Deg 0.34 µg/m3
2021-11-16 04:00 2.59 µg/m3 0.78 µg/m3 87.96 µg/m3 5.96 µg/m3 3.99 µg/m3 0.16 mg/m3 17.28 °C 80.1 % 3.99 m/s 47.62 Deg 0.35 µg/m3
2021-11-16 03:00 1.3 µg/m3 0.25 µg/m3 90.02 µg/m3 5.73 µg/m3 3.73 µg/m3 0.16 mg/m3 17.63 °C 78.54 % 3.63 m/s 62.66 Deg 0.38 µg/m3
2021-11-16 02:00 1.36 µg/m3 0.23 µg/m3 92.52 µg/m3 6.13 µg/m3 3.29 µg/m3 0.16 mg/m3 17.89 °C 75.72 % 2.96 m/s 83.43 Deg 0.35 µg/m3
2021-11-16 01:00 2.18 µg/m3 0.21 µg/m3 94.09 µg/m3 5.67 µg/m3 4.27 µg/m3 0.16 mg/m3 18.03 °C 71.6 % 2.81 m/s 78.9 Deg 0.34 µg/m3
2021-11-16 00:00 7.39 µg/m3 0.2 µg/m3 83.48 µg/m3 7.49 µg/m3 5.36 µg/m3 0.18 mg/m3 18.01 °C 75.83 % 2.46 m/s 104.09 Deg 0.33 µg/m3
2021-11-15 23:00 20.87 µg/m3 0.19 µg/m3 57.55 µg/m3 9.53 µg/m3 6.61 µg/m3 0.22 mg/m3 17.44 °C 86.39 % 2.57 m/s 72.73 Deg 0.36 µg/m3
2021-11-15 22:00 26.96 µg/m3 0.17 µg/m3 48.59 µg/m3 9.96 µg/m3 6.02 µg/m3 0.24 mg/m3 17.16 °C 88.74 % 2.85 m/s 105.57 Deg 0.35 µg/m3
2021-11-15 21:00 27.36 µg/m3 0.2 µg/m3 49.58 µg/m3 6.59 µg/m3 4.53 µg/m3 0.24 mg/m3 17.06 °C 89.03 % 2.96 m/s 61.44 Deg 0.35 µg/m3
2021-11-15 20:00 7.63 µg/m3 0.12 µg/m3 76.97 µg/m3 5.33 µg/m3 4.2 µg/m3 0.17 mg/m3 17.33 °C 85.06 % 2.83 m/s 72.53 Deg 0.34 µg/m3
2021-11-15 19:00 6.43 µg/m3 0.18 µg/m3 80.82 µg/m3 10.36 µg/m3 4.37 µg/m3 0.15 mg/m3 17.18 °C 85.08 % 3.01 m/s 82.92 Deg 0.35 µg/m3
2021-11-15 18:00 16.5 µg/m3 0.23 µg/m3 69.94 µg/m3 9.9 µg/m3 4.17 µg/m3 0.18 mg/m3 17.74 °C 85.08 % 2.45 m/s 77.04 Deg 0.35 µg/m3
2021-11-15 17:00 10.67 µg/m3 0.2 µg/m3 78.55 µg/m3 6.31 µg/m3 4.12 µg/m3 0.16 mg/m3 18.22 °C 81.72 % 2.75 m/s 24.64 Deg 0.54 µg/m3
2021-11-15 16:00 4.69 µg/m3 0.2 µg/m3 89.88 µg/m3 6.31 µg/m3 4.52 µg/m3 0.15 mg/m3 19.1 °C 75.57 % 3.37 m/s 64.07 Deg 0.67 µg/m3
2021-11-15 15:00 3.96 µg/m3 0.23 µg/m3 91.67 µg/m3 5.94 µg/m3 4.12 µg/m3 0.15 mg/m3 19.27 °C 78.51 % 2.55 m/s 114.19 Deg 0.69 µg/m3
2021-11-15 14:00 5.52 µg/m3 0.25 µg/m3 88.91 µg/m3 6.31 µg/m3 2.82 µg/m3 0.15 mg/m3 19.71 °C 76.51 % 3.68 m/s 150.02 Deg 1.24 µg/m3
2021-11-15 13:00 4 µg/m3 0.2 µg/m3 90.01 µg/m3 7.45 µg/m3 2.82 µg/m3 0.15 mg/m3 19.78 °C 74.59 % 2.45 m/s 112.04 Deg 0.91 µg/m3
2021-11-15 12:00 5.1 µg/m3 0.17 µg/m3 86.3 µg/m3 7.74 µg/m3 3.28 µg/m3 0.15 mg/m3 19.11 °C 80.18 % 2.41 m/s 110.31 Deg 1.23 µg/m3
2021-11-15 11:00 5.42 µg/m3 0.22 µg/m3 78.7 µg/m3 5.32 µg/m3 4.48 µg/m3 0.15 mg/m3 19 °C 78.55 % 2.01 m/s 209.84 Deg 0.95 µg/m3
2021-11-15 10:00 2.95 µg/m3 0.18 µg/m3 82.17 µg/m3 4.28 µg/m3 3.15 µg/m3 0.14 mg/m3 18.8 °C 77.58 % 2.7 m/s 233.43 Deg 0.72 µg/m3
2021-11-15 09:00 2.38 µg/m3 0.14 µg/m3 79.4 µg/m3 4.58 µg/m3 3.6 µg/m3 0.15 mg/m3 18.79 °C 77.16 % 1.05 m/s 171.8 Deg 0.54 µg/m3
2021-11-15 08:00 2.21 µg/m3 0.1 µg/m3 85.37 µg/m3 3.85 µg/m3 3.77 µg/m3 0.14 mg/m3 18.21 °C 77.25 % 0.95 m/s 106.58 Deg 0.42 µg/m3
2021-11-15 07:00 1.34 µg/m3 0.08 µg/m3 91.59 µg/m3 2.89 µg/m3 3.32 µg/m3 0.14 mg/m3 17.66 °C 77.41 % 0.33 m/s 138.14 Deg 0.35 µg/m3
2021-11-15 06:00 1.12 µg/m3 0.09 µg/m3 92.29 µg/m3 4.54 µg/m3 4.53 µg/m3 0.13 mg/m3 17.74 °C 73.08 % 0.65 m/s 257.05 Deg 0.34 µg/m3
2021-11-15 05:00 0.97 µg/m3 0.13 µg/m3 89.98 µg/m3 4.95 µg/m3 4.1 µg/m3 0.1 mg/m3 17.61 °C 79.01 % 0.96 m/s 183.07 Deg 0.35 µg/m3
2021-11-15 04:00 1.19 µg/m3 0.56 µg/m3 82.92 µg/m3 8.76 µg/m3 6.02 µg/m3 0.13 mg/m3 17.58 °C 77.89 % 2.57 m/s 125.44 Deg 0.34 µg/m3
2021-11-15 03:00 3.28 µg/m3 0.24 µg/m3 79.55 µg/m3 5.91 µg/m3 4.06 µg/m3 0.18 mg/m3 17.37 °C 81.17 % 2.9 m/s 90.27 Deg 0.35 µg/m3
2021-11-15 02:00 2.65 µg/m3 0.17 µg/m3 80.18 µg/m3 11.22 µg/m3 3.22 µg/m3 0.13 mg/m3 17.03 °C 88.39 % 3 m/s 97.2 Deg 0.35 µg/m3
2021-11-15 01:00 3.34 µg/m3 0.21 µg/m3 79.87 µg/m3 7.52 µg/m3 3.19 µg/m3 0.14 mg/m3 17.08 °C 86.5 % 3.3 m/s 93.4 Deg 0.35 µg/m3
2021-11-15 00:00 5.89 µg/m3 0.16 µg/m3 73.71 µg/m3 5.51 µg/m3 3.58 µg/m3 0.15 mg/m3 17.33 °C 86.7 % 2.61 m/s 83.72 Deg 0.34 µg/m3
2021-11-14 23:00 3.71 µg/m3 0.13 µg/m3 82.91 µg/m3 5.94 µg/m3 3.39 µg/m3 0.14 mg/m3 17.84 °C 83.61 % 1.94 m/s 104.39 Deg 0.35 µg/m3
2021-11-14 22:00 3.53 µg/m3 0.16 µg/m3 87.39 µg/m3 6.59 µg/m3 3.57 µg/m3 0.14 mg/m3 18.18 °C 82.44 % 1.1 m/s 53.13 Deg 0.34 µg/m3
2021-11-14 21:00 3.62 µg/m3 0.18 µg/m3 85.72 µg/m3 6.35 µg/m3 3.24 µg/m3 0.14 mg/m3 18.15 °C 82.46 % 1.8 m/s 85.74 Deg 0.35 µg/m3
2021-11-14 20:00 5.08 µg/m3 0.2 µg/m3 79.66 µg/m3 8.4 µg/m3 3.59 µg/m3 0.16 mg/m3 17.95 °C 83.43 % 2 m/s 115.95 Deg 0.35 µg/m3
2021-11-14 19:00 11.06 µg/m3 0.27 µg/m3 69.96 µg/m3 9.74 µg/m3 5.41 µg/m3 0.18 mg/m3 17.96 °C 83.71 % 1.85 m/s 50.77 Deg 0.35 µg/m3
2021-11-14 18:00 11.4 µg/m3 0.25 µg/m3 60.55 µg/m3 9.18 µg/m3 4.4 µg/m3 0.19 mg/m3 17.87 °C 86.41 % 1.87 m/s 157.97 Deg 0.38 µg/m3
2021-11-14 17:00 8.21 µg/m3 0.22 µg/m3 64.91 µg/m3 7.69 µg/m3 4.81 µg/m3 0.18 mg/m3 18.18 °C 85.34 % 1.92 m/s 35.86 Deg 0.45 µg/m3
2021-11-14 16:00 7.34 µg/m3 0.21 µg/m3 72.01 µg/m3 6.56 µg/m3 4.75 µg/m3 0.16 mg/m3 18.57 °C 83.29 % 3.28 m/s 29.46 Deg 0.61 µg/m3
2021-11-14 15:00 3.42 µg/m3 0.27 µg/m3 89.58 µg/m3 6.5 µg/m3 4.32 µg/m3 0.16 mg/m3 18.89 °C 80.41 % 4.33 m/s 30.6 Deg 0.49 µg/m3
2021-11-14 14:00 3.22 µg/m3 0.3 µg/m3 94.95 µg/m3 6.04 µg/m3 3.59 µg/m3 0.16 mg/m3 19.1 °C 73.42 % 4.4 m/s 74.48 Deg 0.54 µg/m3
2021-11-14 13:00 3.93 µg/m3 0.4 µg/m3 97.78 µg/m3 6.15 µg/m3 4.01 µg/m3 0.16 mg/m3 19.17 °C 71.41 % 4.89 m/s 1.06 Deg 0.64 µg/m3
2021-11-14 12:00 3.78 µg/m3 0.54 µg/m3 98.42 µg/m3 4.57 µg/m3 6.3 µg/m3 0.15 mg/m3 19.17 °C 71.49 % 5.29 m/s 66 Deg 0.66 µg/m3
2021-11-14 11:00 4.19 µg/m3 0.47 µg/m3 96.52 µg/m3 5.83 µg/m3 4.78 µg/m3 0.16 mg/m3 19.31 °C 68.13 % 5.24 m/s 146.28 Deg 0.79 µg/m3
2021-11-14 10:00 3.71 µg/m3 0.34 µg/m3 89.08 µg/m3 8.63 µg/m3 4.67 µg/m3 0.16 mg/m3 19.02 °C 69.63 % 3.75 m/s 142.9 Deg 0.78 µg/m3
2021-11-14 09:00 4.05 µg/m3 0.37 µg/m3 82.97 µg/m3 8.84 µg/m3 3.19 µg/m3 0.18 mg/m3 18.33 °C 72.21 % 2.81 m/s 72.37 Deg 0.69 µg/m3
2021-11-14 08:00 5.75 µg/m3 0.37 µg/m3 79.79 µg/m3 8.86 µg/m3 3.86 µg/m3 0.18 mg/m3 17.48 °C 74.37 % 2.56 m/s -8.18 Deg 0.56 µg/m3
2021-11-14 07:00 8.02 µg/m3 0.37 µg/m3 75.94 µg/m3 9.74 µg/m3 4.2 µg/m3 0.17 mg/m3 17.17 °C 74.5 % 2.89 m/s 33.6 Deg 0.36 µg/m3
2021-11-14 06:00 11.18 µg/m3 0.43 µg/m3 75.32 µg/m3 9.05 µg/m3 4.39 µg/m3 0.17 mg/m3 17.41 °C 72.92 % 2.94 m/s 64.04 Deg 0.33 µg/m3
2021-11-14 05:00 4.83 µg/m3 0.28 µg/m3 88.35 µg/m3 8.78 µg/m3 3.83 µg/m3 0.12 mg/m3 17.68 °C 72.53 % 2.75 m/s 62.61 Deg 0.34 µg/m3
2021-11-14 04:00 4.66 µg/m3 0.71 µg/m3 91.89 µg/m3 9.32 µg/m3 3.93 µg/m3 0.16 mg/m3 17.95 °C 70.77 % 2.53 m/s 57.34 Deg 0.34 µg/m3
2021-11-14 03:00 3.89 µg/m3 0.31 µg/m3 92.98 µg/m3 8.41 µg/m3 4.42 µg/m3 0.15 mg/m3 18.19 °C 69.02 % 2.3 m/s 69.22 Deg 0.33 µg/m3
2021-11-14 02:00 4.31 µg/m3 0.35 µg/m3 94.4 µg/m3 9.18 µg/m3 4.1 µg/m3 0.15 mg/m3 18.32 °C 67.63 % 2.04 m/s 54.14 Deg 0.33 µg/m3
2021-11-14 01:00 5.17 µg/m3 0.36 µg/m3 91.89 µg/m3 9.5 µg/m3 4.79 µg/m3 0.16 mg/m3 18.3 °C 67.93 % 2.41 m/s 68.91 Deg 0.33 µg/m3
2021-11-14 00:00 4.89 µg/m3 0.28 µg/m3 93.56 µg/m3 9.24 µg/m3 4.47 µg/m3 0.16 mg/m3 18.47 °C 67.93 % 1.75 m/s 40.11 Deg 0.33 µg/m3
2021-11-13 23:00 2.08 µg/m3 0.29 µg/m3 99.53 µg/m3 8.86 µg/m3 3.45 µg/m3 0.15 mg/m3 18.69 °C 62.98 % 1.62 m/s 63.67 Deg 0.33 µg/m3
2021-11-13 22:00 2.37 µg/m3 0.3 µg/m3 100.59 µg/m3 10.64 µg/m3 3.46 µg/m3 0.16 mg/m3 18.74 °C 62.05 % 1.34 m/s 50.36 Deg 0.33 µg/m3
2021-11-13 21:00 3.41 µg/m3 0.3 µg/m3 98.89 µg/m3 8.79 µg/m3 4.1 µg/m3 0.17 mg/m3 18.87 °C 60.59 % 1.42 m/s 63.49 Deg 0.34 µg/m3
2021-11-13 20:00 2.25 µg/m3 0.29 µg/m3 101.87 µg/m3 7.71 µg/m3 4.62 µg/m3 0.15 mg/m3 18.93 °C 57.25 % 0.69 m/s 47.99 Deg 0.33 µg/m3
2021-11-13 19:00 1.58 µg/m3 0.24 µg/m3 103.74 µg/m3 7.45 µg/m3 4 µg/m3 0.14 mg/m3 19.01 °C 56.13 % 0.46 m/s 97.78 Deg 0.33 µg/m3
2021-11-13 18:00 1.42 µg/m3 0.2 µg/m3 100.84 µg/m3 10.33 µg/m3 4.25 µg/m3 0.14 mg/m3 19.17 °C 55.96 % 1.04 m/s 206.67 Deg 0.33 µg/m3
2021-11-13 17:00 1.34 µg/m3 0.19 µg/m3 96.5 µg/m3 10.07 µg/m3 4.73 µg/m3 0.14 mg/m3 19.47 °C 56.21 % 1.44 m/s 180.13 Deg 0.34 µg/m3
2021-11-13 16:00 1.19 µg/m3 0.22 µg/m3 98.4 µg/m3 11.22 µg/m3 3.74 µg/m3 0.14 mg/m3 19.87 °C 58.47 % 2.06 m/s 119.4 Deg 0.36 µg/m3
2021-11-13 15:00 1.17 µg/m3 0.22 µg/m3 97.23 µg/m3 12.24 µg/m3 3.52 µg/m3 0.14 mg/m3 19.98 °C 58.99 % 2.25 m/s 186.15 Deg 0.37 µg/m3
2021-11-13 14:00 1.24 µg/m3 0.25 µg/m3 98.86 µg/m3 9.69 µg/m3 4.26 µg/m3 0.15 mg/m3 19.84 °C 61.32 % 2.18 m/s 168.64 Deg 0.37 µg/m3
2021-11-13 13:00 1.69 µg/m3 0.31 µg/m3 103.49 µg/m3 7.52 µg/m3 3.52 µg/m3 0.15 mg/m3 20.02 °C 63.65 % 2.01 m/s 115.21 Deg 0.41 µg/m3
2021-11-13 12:00 2.54 µg/m3 0.35 µg/m3 101.1 µg/m3 9.18 µg/m3 4.35 µg/m3 0.16 mg/m3 20.1 °C 64.23 % 1.92 m/s 146.5 Deg 0.55 µg/m3
2021-11-13 11:00 7.82 µg/m3 0.35 µg/m3 91.74 µg/m3 13.52 µg/m3 4.25 µg/m3 0.18 mg/m3 19.47 °C 69.06 % 1.65 m/s 92.79 Deg 1.52 µg/m3
2021-11-13 10:00 8.35 µg/m3 0.33 µg/m3 86.05 µg/m3 6.69 µg/m3 3.56 µg/m3 0.2 mg/m3 18.73 °C 70.94 % 1.58 m/s 23.11 Deg 1.44 µg/m3
2021-11-13 09:00 9.13 µg/m3 0.34 µg/m3 89.92 µg/m3 4.84 µg/m3 3.45 µg/m3 0.17 mg/m3 18.44 °C 67.93 % 1.6 m/s 136.47 Deg 1.17 µg/m3
2021-11-13 08:00 5.42 µg/m3 0.31 µg/m3 101.36 µg/m3 4.52 µg/m3 3.23 µg/m3 0.16 mg/m3 18.14 °C 67.33 % 1.08 m/s 75.05 Deg 0.44 µg/m3
2021-11-13 07:00 2.56 µg/m3 0.33 µg/m3 103.8 µg/m3 3.75 µg/m3 3.74 µg/m3 0.16 mg/m3 17.98 °C 67.52 % 0.94 m/s 108.86 Deg 0.33 µg/m3
2021-11-13 06:00 2.1 µg/m3 0.27 µg/m3 104.06 µg/m3 4.07 µg/m3 3.28 µg/m3 0.15 mg/m3 17.77 °C 65.62 % 1.39 m/s 46.53 Deg 0.33 µg/m3
2021-11-13 05:00 2.16 µg/m3 0.27 µg/m3 103.41 µg/m3 5.67 µg/m3 3.3 µg/m3 0.13 mg/m3 17.72 °C 62.25 % 1.56 m/s 202.08 Deg 0.33 µg/m3
2021-11-13 04:00 1.94 µg/m3 0.93 µg/m3 102.94 µg/m3 4.9 µg/m3 3.7 µg/m3 0.17 mg/m3 17.78 °C 56.39 % 1.73 m/s 209.72 Deg 0.33 µg/m3
2021-11-13 03:00 4.49 µg/m3 0.26 µg/m3 96.72 µg/m3 5.48 µg/m3 3.45 µg/m3 0.17 mg/m3 17.66 °C 64.4 % 1.41 m/s 262.04 Deg 0.33 µg/m3
2021-11-13 02:00 4.49 µg/m3 0.24 µg/m3 97.34 µg/m3 3.63 µg/m3 3.58 µg/m3 0.18 mg/m3 17.88 °C 63.08 % 1.62 m/s 36.53 Deg 0.32 µg/m3
2021-11-13 01:00 1.99 µg/m3 0.21 µg/m3 103.47 µg/m3 3.18 µg/m3 4.41 µg/m3 0.18 mg/m3 17.93 °C 60.1 % 1.78 m/s 73.82 Deg 0.32 µg/m3
2021-11-13 00:00 1.74 µg/m3 0.19 µg/m3 103.85 µg/m3 3.82 µg/m3 3.67 µg/m3 0.18 mg/m3 17.94 °C 58.51 % 1.63 m/s 36.22 Deg 0.32 µg/m3
2021-11-12 23:00 1.82 µg/m3 0.23 µg/m3 103.8 µg/m3 3.44 µg/m3 3.67 µg/m3 0.17 mg/m3 17.95 °C 58.77 % 1.29 m/s 17.02 Deg 0.31 µg/m3
2021-11-12 22:00 2.14 µg/m3 0.24 µg/m3 103.93 µg/m3 5.92 µg/m3 4.57 µg/m3 0.18 mg/m3 18.11 °C 57.59 % 1.15 m/s 44.69 Deg 0.31 µg/m3
2021-11-12 21:00 2.62 µg/m3 0.38 µg/m3 104.94 µg/m3 3.82 µg/m3 3.99 µg/m3 0.2 mg/m3 17.96 °C 59.61 % 0.92 m/s 57.68 Deg 0.33 µg/m3
2021-11-12 20:00 1.45 µg/m3 0.21 µg/m3 107.08 µg/m3 3.12 µg/m3 3.57 µg/m3 0.16 mg/m3 17.92 °C 59.05 % 0.55 m/s 191 Deg 0.32 µg/m3
2021-11-12 19:00 1.25 µg/m3 0.25 µg/m3 106.39 µg/m3 4.65 µg/m3 3.35 µg/m3 0.16 mg/m3 17.84 °C 59.87 % 0.16 m/s 181.04 Deg 0.33 µg/m3
2021-11-12 18:00 1.34 µg/m3 0.23 µg/m3 105.15 µg/m3 5.22 µg/m3 2.87 µg/m3 0.16 mg/m3 18.27 °C 58.35 % 0.84 m/s 289.26 Deg 0.34 µg/m3
2021-11-12 17:00 1.64 µg/m3 0.23 µg/m3 99.81 µg/m3 4.71 µg/m3 3.57 µg/m3 0.17 mg/m3 18.71 °C 60.25 % 0.97 m/s 274.66 Deg 0.33 µg/m3
2021-11-12 16:00 1.93 µg/m3 0.26 µg/m3 102.36 µg/m3 2.35 µg/m3 4.34 µg/m3 0.16 mg/m3 19.08 °C 61.46 % 1.58 m/s 256.22 Deg 0.41 µg/m3
2021-11-12 15:00 1.63 µg/m3 0.27 µg/m3 103.77 µg/m3 3.95 µg/m3 3.31 µg/m3 0.16 mg/m3 19.28 °C 59.28 % 1.65 m/s 237.76 Deg 0.4 µg/m3
2021-11-12 14:00 1.89 µg/m3 0.3 µg/m3 103.35 µg/m3 4.39 µg/m3 3.65 µg/m3 0.16 mg/m3 19.24 °C 59.25 % 2.04 m/s 223.42 Deg 0.44 µg/m3
2021-11-12 13:00 1.84 µg/m3 0.36 µg/m3 102.35 µg/m3 5.6 µg/m3 3.37 µg/m3 0.17 mg/m3 19.26 °C 61.69 % 1.95 m/s 198.16 Deg 0.41 µg/m3
2021-11-12 12:00 1.75 µg/m3 0.45 µg/m3 101.34 µg/m3 4.46 µg/m3 3.55 µg/m3 0.17 mg/m3 19.18 °C 60.99 % 1.9 m/s 156.86 Deg 0.39 µg/m3
2021-11-12 11:00 1.98 µg/m3 0.49 µg/m3 98.48 µg/m3 3.44 µg/m3 3.45 µg/m3 0.17 mg/m3 19.14 °C 62.03 % 1.88 m/s 207.51 Deg 0.44 µg/m3
2021-11-12 10:00 2.08 µg/m3 0.5 µg/m3 96.72 µg/m3 4.2 µg/m3 3.24 µg/m3 0.17 mg/m3 18.98 °C 60.61 % 1.93 m/s 181.16 Deg 0.44 µg/m3
2021-11-12 09:00 3.23 µg/m3 0.51 µg/m3 90.72 µg/m3 4.58 µg/m3 2.95 µg/m3 0.17 mg/m3 18.69 °C 62.36 % 1.63 m/s 113.62 Deg 0.54 µg/m3
2021-11-12 08:00 2.51 µg/m3 0.48 µg/m3 96.34 µg/m3 3.88 µg/m3 2.76 µg/m3 0.16 mg/m3 18.39 °C 58.72 % 0.62 m/s 122.9 Deg 0.4 µg/m3
2021-11-12 07:00 1.35 µg/m3 0.3 µg/m3 100.51 µg/m3 3.37 µg/m3 2.3 µg/m3 0.16 mg/m3 17.76 °C 57.58 % 0.25 m/s 116.67 Deg 0.32 µg/m3
2021-11-12 06:00 1.22 µg/m3 0.24 µg/m3 100.09 µg/m3 4.01 µg/m3 2.69 µg/m3 0.16 mg/m3 17.78 °C 55.19 % 0.58 m/s 157.92 Deg 0.32 µg/m3
2021-11-12 05:00 1.18 µg/m3 0.23 µg/m3 99.44 µg/m3 4.26 µg/m3 3.39 µg/m3 0.13 mg/m3 17.91 °C 53.78 % 0.77 m/s 177.1 Deg 0.32 µg/m3
2021-11-12 04:00 1.15 µg/m3 0.38 µg/m3 100.18 µg/m3 5.92 µg/m3 2.69 µg/m3 0.15 mg/m3 18 °C 52.8 % 0.78 m/s 262.97 Deg 0.33 µg/m3
2021-11-12 03:00 1.15 µg/m3 0.26 µg/m3 98.92 µg/m3 3.5 µg/m3 3.13 µg/m3 0.15 mg/m3 18.25 °C 51.35 % 1.97 m/s 248.31 Deg 0.33 µg/m3
2021-11-12 02:00 1.21 µg/m3 0.22 µg/m3 99.44 µg/m3 4.33 µg/m3 3.13 µg/m3 0.15 mg/m3 18.11 °C 49.5 % 2.43 m/s 274.53 Deg 0.33 µg/m3
2021-11-12 01:00 1.23 µg/m3 0.29 µg/m3 101.97 µg/m3 4.39 µg/m3 2.63 µg/m3 0.15 mg/m3 18.1 °C 56.88 % 2.46 m/s 168.96 Deg 0.33 µg/m3
2021-11-12 00:00 1.28 µg/m3 0.27 µg/m3 102.79 µg/m3 3.95 µg/m3 2.38 µg/m3 0.16 mg/m3 18.4 °C 55.99 % 2.85 m/s 198.97 Deg 0.33 µg/m3
2021-11-11 23:00 1.25 µg/m3 0.47 µg/m3 100.95 µg/m3 6.05 µg/m3 3.24 µg/m3 0.15 mg/m3 18.46 °C 55.53 % 2.78 m/s 215.3 Deg 0.33 µg/m3
2021-11-11 22:00 1.21 µg/m3 1.71 µg/m3 103.21 µg/m3 7.14 µg/m3 3.74 µg/m3 0.15 mg/m3 18.65 °C 54.1 % 3.95 m/s 191.07 Deg 0.34 µg/m3
2021-11-11 21:00 1.18 µg/m3 1.56 µg/m3 103.13 µg/m3 8.03 µg/m3 4.86 µg/m3 0.16 mg/m3 18.71 °C 57.46 % 4.63 m/s 211.95 Deg 0.33 µg/m3
2021-11-11 20:00 1.18 µg/m3 1.16 µg/m3 102.39 µg/m3 8.99 µg/m3 4.75 µg/m3 0.16 mg/m3 18.71 °C 58.89 % 4.12 m/s 239.09 Deg 0.33 µg/m3
2021-11-11 19:00 1.2 µg/m3 1.38 µg/m3 102.87 µg/m3 6.75 µg/m3 4.21 µg/m3 0.16 mg/m3 18.89 °C 56.66 % 4.71 m/s 140.02 Deg 0.33 µg/m3
2021-11-11 18:00 1.27 µg/m3 0.56 µg/m3 101.69 µg/m3 6.43 µg/m3 3.77 µg/m3 0.16 mg/m3 18.89 °C 57.03 % 4.34 m/s 181.4 Deg 0.34 µg/m3
2021-11-11 17:00 1.29 µg/m3 0.39 µg/m3 100.33 µg/m3 7.39 µg/m3 4.05 µg/m3 0.15 mg/m3 19.19 °C 54.86 % 4.53 m/s 194.35 Deg 0.35 µg/m3
2021-11-11 16:00 1.32 µg/m3 0.64 µg/m3 98.64 µg/m3 7.01 µg/m3 3.3 µg/m3 0.15 mg/m3 19.58 °C 54.26 % 4.13 m/s 197.72 Deg 0.38 µg/m3
2021-11-11 15:00 1.22 µg/m3 0.49 µg/m3 98.67 µg/m3 5.86 µg/m3 3.81 µg/m3 0.15 mg/m3 19.72 °C 54.4 % 4.36 m/s 238.66 Deg 0.39 µg/m3
2021-11-11 14:00 1.23 µg/m3 0.18 µg/m3 97.28 µg/m3 8.92 µg/m3 4.05 µg/m3 0.15 mg/m3 19.64 °C 54.3 % 4.33 m/s 198.92 Deg 0.36 µg/m3
2021-11-11 13:00 1.3 µg/m3 0.3 µg/m3 95.78 µg/m3 6.82 µg/m3 5.13 µg/m3 0.16 mg/m3 19.42 °C 57.17 % 4.69 m/s 189.77 Deg 0.37 µg/m3
2021-11-11 12:00 1.48 µg/m3 0.53 µg/m3 93 µg/m3 3.95 µg/m3 4.15 µg/m3 0.16 mg/m3 19.47 °C 63.38 % 4.6 m/s 200.82 Deg 0.38 µg/m3
2021-11-11 11:00 2.01 µg/m3 0.32 µg/m3 92.19 µg/m3 10.39 µg/m3 5.19 µg/m3 0.17 mg/m3 18.78 °C 74.4 % 2.93 m/s 240.29 Deg 0.38 µg/m3
2021-11-11 10:00 2.37 µg/m3 0.16 µg/m3 87.8 µg/m3 6.24 µg/m3 5.47 µg/m3 0.17 mg/m3 17.21 °C 91.62 % 2 m/s 165.32 Deg 0.43 µg/m3
2021-11-11 09:00 1.76 µg/m3 0.19 µg/m3 90.48 µg/m3 6.18 µg/m3 2.87 µg/m3 0.16 mg/m3 17.42 °C 85.38 % 2.97 m/s 230.35 Deg 0.38 µg/m3
2021-11-11 08:00 2 µg/m3 0.1 µg/m3 91.2 µg/m3 5.22 µg/m3 5.15 µg/m3 0.16 mg/m3 16.43 °C 99.91 % 2.82 m/s 301.22 Deg 0.36 µg/m3
2021-11-11 07:00 1.9 µg/m3 0.13 µg/m3 93.18 µg/m3 16.77 µg/m3 9.5 µg/m3 0.17 mg/m3 15.62 °C 99.72 % 3.66 m/s 305.64 Deg 0.34 µg/m3
2021-11-11 06:00 2.31 µg/m3 0.1 µg/m3 82.08 µg/m3 20.92 µg/m3 9.37 µg/m3 0.18 mg/m3 19.11 °C 92.94 % 5.29 m/s 119.56 Deg 0.36 µg/m3
2021-11-11 05:00 1.98 µg/m3 0.12 µg/m3 81.85 µg/m3 17.98 µg/m3 10.98 µg/m3 0.14 mg/m3 19.73 °C 91.23 % 9.49 m/s 102.96 Deg 0.35 µg/m3
2021-11-11 04:00 1.41 µg/m3 0.28 µg/m3 81.43 µg/m3 25.38 µg/m3 8.38 µg/m3 0.18 mg/m3 19.6 °C 92.2 % 10.74 m/s 109.87 Deg 0.38 µg/m3
2021-11-11 03:00 1.25 µg/m3 0.15 µg/m3 80.66 µg/m3 21.62 µg/m3 8.88 µg/m3 0.18 mg/m3 19.61 °C 92.08 % 9.71 m/s 129.97 Deg 0.34 µg/m3
2021-11-11 02:00 1.4 µg/m3 0.15 µg/m3 79.66 µg/m3 24.17 µg/m3 12.85 µg/m3 0.19 mg/m3 19.48 °C 92.67 % 8.85 m/s 78.72 Deg 0.36 µg/m3
2021-11-11 01:00 1.56 µg/m3 0.17 µg/m3 82.24 µg/m3 21.62 µg/m3 13.14 µg/m3 0.19 mg/m3 19.62 °C 92.89 % 9.42 m/s 121.63 Deg 0.36 µg/m3
2021-11-11 00:00 1.72 µg/m3 0.16 µg/m3 84.5 µg/m3 27.87 µg/m3 11.66 µg/m3 0.19 mg/m3 19.97 °C 90.34 % 9.2 m/s 97.08 Deg 0.37 µg/m3
2021-11-10 23:00 2.27 µg/m3 0.16 µg/m3 86.92 µg/m3 30.3 µg/m3 8.99 µg/m3 0.18 mg/m3 20.18 °C 90.23 % 8.46 m/s 108.59 Deg 0.36 µg/m3
2021-11-10 22:00 2.83 µg/m3 0.12 µg/m3 89.6 µg/m3 26.02 µg/m3 10.9 µg/m3 0.18 mg/m3 20.31 °C 89.49 % 9.34 m/s 92.24 Deg 0.36 µg/m3
2021-11-10 21:00 3.06 µg/m3 0.14 µg/m3 88.57 µg/m3 24.87 µg/m3 10.44 µg/m3 0.17 mg/m3 20.39 °C 90.29 % 9.22 m/s 93.16 Deg 0.37 µg/m3
2021-11-10 20:00 3.07 µg/m3 0.16 µg/m3 91.71 µg/m3 16.64 µg/m3 13.12 µg/m3 0.17 mg/m3 20.45 °C 91.05 % 9.11 m/s 92.43 Deg 0.36 µg/m3
2021-11-10 19:00 4.16 µg/m3 0.16 µg/m3 90.06 µg/m3 18.62 µg/m3 13.46 µg/m3 0.17 mg/m3 20.56 °C 91 % 10 m/s 112.07 Deg 0.37 µg/m3
2021-11-10 18:00 8.01 µg/m3 0.1 µg/m3 82.21 µg/m3 18.11 µg/m3 10.66 µg/m3 0.18 mg/m3 20.66 °C 92.15 % 11.12 m/s 116.09 Deg 0.38 µg/m3
2021-11-10 17:00 4.51 µg/m3 0.1 µg/m3 81.01 µg/m3 16.45 µg/m3 8.54 µg/m3 0.17 mg/m3 20.72 °C 93.6 % 10.18 m/s 111.46 Deg 0.39 µg/m3
2021-11-10 16:00 3.82 µg/m3 0.14 µg/m3 75.88 µg/m3 15.75 µg/m3 10.02 µg/m3 0.17 mg/m3 20.73 °C 94 % 9.45 m/s 91.91 Deg 0.41 µg/m3
2021-11-10 15:00 3.31 µg/m3 0.12 µg/m3 74.77 µg/m3 16.83 µg/m3 7.63 µg/m3 0.16 mg/m3 20.6 °C 93.91 % 9.23 m/s 90.79 Deg 0.42 µg/m3
2021-11-10 14:00 3.52 µg/m3 0.18 µg/m3 75.59 µg/m3 22.64 µg/m3 7.67 µg/m3 0.16 mg/m3 20.6 °C 92.88 % 9.25 m/s 87.97 Deg 0.52 µg/m3
2021-11-10 13:00 4.02 µg/m3 0.18 µg/m3 77.62 µg/m3 22.51 µg/m3 8.24 µg/m3 0.16 mg/m3 20.97 °C 90.67 % 8.57 m/s 36.07 Deg 0.79 µg/m3
2021-11-10 12:00 4.99 µg/m3 0.2 µg/m3 77.8 µg/m3 18.87 µg/m3 7.25 µg/m3 0.16 mg/m3 21.07 °C 88.94 % 8.11 m/s 50.15 Deg 0.94 µg/m3
2021-11-10 11:00 3.46 µg/m3 0.16 µg/m3 77.23 µg/m3 16.07 µg/m3 7.39 µg/m3 0.16 mg/m3 21.06 °C 85.91 % 7.9 m/s 51.92 Deg 0.69 µg/m3
2021-11-10 10:00 4.85 µg/m3 0.13 µg/m3 76.92 µg/m3 11.47 µg/m3 7.17 µg/m3 0.16 mg/m3 20.56 °C 89.34 % 6.22 m/s 57.34 Deg 0.85 µg/m3
2021-11-10 09:00 3.18 µg/m3 0.09 µg/m3 77.51 µg/m3 8.48 µg/m3 5.46 µg/m3 0.15 mg/m3 19.58 °C 88.82 % 4.88 m/s 177.66 Deg 0.57 µg/m3
2021-11-10 08:00 4.17 µg/m3 0.09 µg/m3 78.72 µg/m3 5.73 µg/m3 3.8 µg/m3 0.14 mg/m3 18.63 °C 88.48 % 3.92 m/s 215.41 Deg 0.47 µg/m3
2021-11-10 07:00 3.28 µg/m3 0.08 µg/m3 84.44 µg/m3 6.05 µg/m3 4.2 µg/m3 0.14 mg/m3 18.38 °C 85.19 % 4.58 m/s 177.2 Deg 0.38 µg/m3
2021-11-10 06:00 4.5 µg/m3 0.09 µg/m3 84.77 µg/m3 5.35 µg/m3 3.93 µg/m3 0.13 mg/m3 18.01 °C 85.32 % 4.83 m/s 107.9 Deg 0.35 µg/m3
2021-11-10 05:00 1.55 µg/m3 0.1 µg/m3 87.06 µg/m3 3.37 µg/m3 3.47 µg/m3 0.11 mg/m3 17.92 °C 83.41 % 3.25 m/s 181.28 Deg 0.35 µg/m3
2021-11-10 04:00 1.47 µg/m3 0.28 µg/m3 91.25 µg/m3 6.69 µg/m3 3.42 µg/m3 0.14 mg/m3 17.91 °C 81.54 % 2.7 m/s 308.88 Deg 0.36 µg/m3
2021-11-10 03:00 1.1 µg/m3 0.1 µg/m3 94.86 µg/m3 6.4 µg/m3 3.32 µg/m3 0.14 mg/m3 17.53 °C 83.54 % 4.7 m/s 207.75 Deg 0.35 µg/m3
2021-11-10 02:00 1.77 µg/m3 0.08 µg/m3 95.15 µg/m3 7.41 µg/m3 14.75 µg/m3 0.14 mg/m3 16.48 °C 91.04 % 6.35 m/s 206.82 Deg 0.35 µg/m3
2021-11-10 01:00 1.63 µg/m3 0.11 µg/m3 90.18 µg/m3 17.09 µg/m3 8.54 µg/m3 0.15 mg/m3 16.54 °C 98.54 % 9.29 m/s 204.89 Deg 0.35 µg/m3
2021-11-10 00:00 1.88 µg/m3 0.15 µg/m3 76.79 µg/m3 16.28 µg/m3 9.07 µg/m3 0.16 mg/m3 20.29 °C 91.03 % 8.64 m/s 118.97 Deg 0.37 µg/m3
2021-11-09 23:00 2.63 µg/m3 0.1 µg/m3 74.35 µg/m3 16.91 µg/m3 8.54 µg/m3 0.16 mg/m3 20.21 °C 91.45 % 8.93 m/s 100.86 Deg 0.37 µg/m3
2021-11-09 22:00 2.73 µg/m3 0.1 µg/m3 73.41 µg/m3 15.06 µg/m3 6.02 µg/m3 0.17 mg/m3 20.19 °C 93.11 % 9.09 m/s 171.61 Deg 0.37 µg/m3
2021-11-09 21:00 3.01 µg/m3 0.09 µg/m3 73.15 µg/m3 7.84 µg/m3 3.99 µg/m3 0.16 mg/m3 20.06 °C 94.18 % 8.08 m/s 105.57 Deg 0.36 µg/m3
2021-11-09 20:00 2.67 µg/m3 0.11 µg/m3 74.7 µg/m3 2.85 µg/m3 3.99 µg/m3 0.14 mg/m3 18.83 °C 89.16 % 7.29 m/s 198.99 Deg 0.4 µg/m3
2021-11-09 19:00 8.51 µg/m3 0.1 µg/m3 65.42 µg/m3 3.91 µg/m3 2.34 µg/m3 0.14 mg/m3 18.66 °C 86.33 % 6.37 m/s 262.46 Deg 0.42 µg/m3
2021-11-09 18:00 2.41 µg/m3 0.09 µg/m3 74.9 µg/m3 4.39 µg/m3 3.08 µg/m3 0.14 mg/m3 18.14 °C 84.26 % 4.04 m/s 253.23 Deg 0.37 µg/m3
2021-11-09 17:00 1.94 µg/m3 0.08 µg/m3 72.87 µg/m3 4.42 µg/m3 1.97 µg/m3 0.14 mg/m3 18.08 °C 87.18 % 3.49 m/s 253.23 Deg 0.42 µg/m3
2021-11-09 16:00 1.1 µg/m3 0.08 µg/m3 75.95 µg/m3 5.99 µg/m3 4.2 µg/m3 0.14 mg/m3 18.2 °C 83.67 % 3.99 m/s 261.72 Deg 0.41 µg/m3
2021-11-09 15:00 0.89 µg/m3 0.07 µg/m3 76.17 µg/m3 16.64 µg/m3 6.03 µg/m3 0.14 mg/m3 17.66 °C 86.25 % 7.07 m/s 202.88 Deg 0.37 µg/m3
2021-11-09 14:00 6.56 µg/m3 0.09 µg/m3 64.06 µg/m3 23.66 µg/m3 7.5 µg/m3 0.16 mg/m3 21.37 °C 89.71 % 3.43 m/s 138.99 Deg 0.85 µg/m3
2021-11-09 13:00 11.04 µg/m3 0.1 µg/m3 56.58 µg/m3 23.77 µg/m3 7.74 µg/m3 0.18 mg/m3 22 °C 92.9 % 3.46 m/s 89.85 Deg 1.62 µg/m3
2021-11-09 12:00 10.22 µg/m3 0.06 µg/m3 55.53 µg/m3 23.69 µg/m3 8.43 µg/m3 0.18 mg/m3 22.18 °C 92.74 % 3.99 m/s 113.39 Deg 1.67 µg/m3
2021-11-09 11:00 20.53 µg/m3 0.18 µg/m3 43.44 µg/m3 22.02 µg/m3 8.58 µg/m3 0.25 mg/m3 22.04 °C 94.72 % 4.14 m/s 75.51 Deg 5.61 µg/m3
2021-11-09 10:00 23.57 µg/m3 0.17 µg/m3 36.91 µg/m3 19.23 µg/m3 7.03 µg/m3 0.25 mg/m3 21.14 °C 95.14 % 2.56 m/s 107.37 Deg 3.69 µg/m3
2021-11-09 09:00 15.41 µg/m3 0.15 µg/m3 43.91 µg/m3 16.82 µg/m3 6.24 µg/m3 0.22 mg/m3 20.75 °C 94.09 % 2.25 m/s 112.1 Deg 1.78 µg/m3
2021-11-09 08:00 10.56 µg/m3 0.18 µg/m3 52.67 µg/m3 15.4 µg/m3 6.11 µg/m3 0.19 mg/m3 20.39 °C 92.8 % 2.03 m/s 131.19 Deg 0.58 µg/m3
2021-11-09 07:00 7.75 µg/m3 0.13 µg/m3 52.2 µg/m3 14.78 µg/m3 5.89 µg/m3 0.18 mg/m3 20.01 °C 96.34 % 2.03 m/s 215.89 Deg 0.4 µg/m3
2021-11-09 06:00 5.34 µg/m3 0.13 µg/m3 58.42 µg/m3 14.66 µg/m3 5.85 µg/m3 0.17 mg/m3 19.96 °C 97.11 % 1.67 m/s 153.84 Deg 0.39 µg/m3
2021-11-09 05:00 4.33 µg/m3 0.17 µg/m3 59.59 µg/m3 13.37 µg/m3 5.9 µg/m3 0.13 mg/m3 19.74 °C 96.12 % 2.37 m/s 164.02 Deg 0.39 µg/m3
2021-11-09 04:00 5.51 µg/m3 0.25 µg/m3 59.21 µg/m3 14.42 µg/m3 6.86 µg/m3 0.15 mg/m3 19.6 °C 94.11 % 2.25 m/s 44.87 Deg 0.4 µg/m3
2021-11-09 03:00 5.11 µg/m3 0.15 µg/m3 65.26 µg/m3 15.35 µg/m3 7.21 µg/m3 0.15 mg/m3 19.66 °C 91.68 % 1.76 m/s 77.59 Deg 0.37 µg/m3
2021-11-09 02:00 10.16 µg/m3 0.1 µg/m3 56.1 µg/m3 13.48 µg/m3 7.33 µg/m3 0.15 mg/m3 19.67 °C 90.82 % 1.42 m/s 226.52 Deg 0.39 µg/m3
2021-11-09 01:00 11.16 µg/m3 0.13 µg/m3 60.55 µg/m3 13.96 µg/m3 6.57 µg/m3 0.15 mg/m3 19.82 °C 91.75 % 2.03 m/s 293.38 Deg 0.37 µg/m3
2021-11-09 00:00 12.29 µg/m3 0.07 µg/m3 60.2 µg/m3 15.73 µg/m3 5.41 µg/m3 0.15 mg/m3 19.86 °C 92.96 % 2.02 m/s 283.24 Deg 0.38 µg/m3
2021-11-08 23:00 6.38 µg/m3 0.04 µg/m3 69.32 µg/m3 14.41 µg/m3 7.1 µg/m3 0.15 mg/m3 20.05 °C 96.17 % 2.34 m/s 321.76 Deg 0.4 µg/m3
2021-11-08 22:00 7.35 µg/m3 0.03 µg/m3 68.53 µg/m3 14.3 µg/m3 6.8 µg/m3 0.15 mg/m3 20.27 °C 96.07 % 2.26 m/s 337.85 Deg 0.39 µg/m3
2021-11-08 21:00 3.15 µg/m3 0.08 µg/m3 71.66 µg/m3 15.33 µg/m3 6.62 µg/m3 0.15 mg/m3 20.79 °C 96.09 % 2.47 m/s 259.11 Deg 0.39 µg/m3
2021-11-08 20:00 2.02 µg/m3 0.05 µg/m3 66.02 µg/m3 16.29 µg/m3 8.42 µg/m3 0.14 mg/m3 21.5 °C 97.13 % 4.38 m/s 175.21 Deg 0.4 µg/m3
2021-11-08 19:00 2.97 µg/m3 0.09 µg/m3 63.73 µg/m3 19.05 µg/m3 7.46 µg/m3 0.15 mg/m3 21.5 °C 96.08 % 3.65 m/s 173.33 Deg 0.39 µg/m3
2021-11-08 18:00 2.44 µg/m3 0.07 µg/m3 67.08 µg/m3 21.28 µg/m3 9.06 µg/m3 0.15 mg/m3 21.66 °C 95.61 % 5.09 m/s 174.28 Deg 0.4 µg/m3
2021-11-08 17:00 5.91 µg/m3 0.08 µg/m3 61.02 µg/m3 17.25 µg/m3 9.72 µg/m3 0.16 mg/m3 22.03 °C 91.7 % 4.95 m/s 158.6 Deg 0.49 µg/m3
2021-11-08 16:00 5.23 µg/m3 0.07 µg/m3 61.57 µg/m3 17.09 µg/m3 7.21 µg/m3 0.16 mg/m3 22.08 °C 90.48 % 5.24 m/s 133.08 Deg 0.63 µg/m3
2021-11-08 15:00 2.73 µg/m3 0.05 µg/m3 66.51 µg/m3 19.53 µg/m3 6.57 µg/m3 0.15 mg/m3 22.22 °C 90.55 % 5.77 m/s 149.04 Deg 0.5 µg/m3
2021-11-08 14:00 1.98 µg/m3 0.03 µg/m3 68.43 µg/m3 16.94 µg/m3 7.58 µg/m3 0.14 mg/m3 22.27 °C 91.05 % 6.02 m/s 160.26 Deg 0.52 µg/m3
2021-11-08 13:00 1.84 µg/m3 0.03 µg/m3 68.74 µg/m3 16.18 µg/m3 7.95 µg/m3 0.15 mg/m3 22.42 °C 89.94 % 6.03 m/s 132.13 Deg 0.51 µg/m3
2021-11-08 12:00 2.1 µg/m3 0.06 µg/m3 68.8 µg/m3 15.46 µg/m3 8.05 µg/m3 0.15 mg/m3 22.52 °C 88.5 % 6.66 m/s 155.66 Deg 0.58 µg/m3
2021-11-08 11:00 1.79 µg/m3 0.09 µg/m3 70.94 µg/m3 13.36 µg/m3 7.33 µg/m3 0.15 mg/m3 22.44 °C 85.13 % 6.96 m/s 122.54 Deg 0.49 µg/m3
2021-11-08 10:00 1.57 µg/m3 0.08 µg/m3 73.29 µg/m3 15.76 µg/m3 4.83 µg/m3 0.15 mg/m3 22.22 °C 85.89 % 8.33 m/s 131.7 Deg 0.45 µg/m3
2021-11-08 09:00 2.78 µg/m3 0.05 µg/m3 69.97 µg/m3 18.85 µg/m3 6.37 µg/m3 0.15 mg/m3 21.67 °C 88.37 % 7.52 m/s 149.17 Deg 0.5 µg/m3
2021-11-08 08:00 6.86 µg/m3 0.11 µg/m3 62.25 µg/m3 19.27 µg/m3 7.54 µg/m3 0.16 mg/m3 20.93 °C 92.42 % 5.74 m/s 124.66 Deg 0.56 µg/m3
2021-11-08 07:00 11.83 µg/m3 0.09 µg/m3 50.3 µg/m3 18.11 µg/m3 6.99 µg/m3 0.18 mg/m3 20.14 °C 96.88 % 3.55 m/s 107.53 Deg 0.44 µg/m3
2021-11-08 06:00 6.58 µg/m3 0.1 µg/m3 54.81 µg/m3 17.89 µg/m3 7.33 µg/m3 0.17 mg/m3 20.08 °C 96.95 % 2.41 m/s 120.35 Deg 0.39 µg/m3
2021-11-08 05:00 3.54 µg/m3 0.09 µg/m3 58.17 µg/m3 21.08 µg/m3 4.55 µg/m3 0.12 mg/m3 20.24 °C 94.76 % 2.28 m/s 150.11 Deg 0.37 µg/m3
2021-11-08 04:00 4.95 µg/m3 0.15 µg/m3 58.79 µg/m3 20.69 µg/m3 5.75 µg/m3 0.14 mg/m3 20.62 °C 94.99 % 2.94 m/s 100.48 Deg 0.38 µg/m3
2021-11-08 03:00 4.1 µg/m3 0.06 µg/m3 59.71 µg/m3 16.45 µg/m3 7.57 µg/m3 0.14 mg/m3 20.81 °C 96.59 % 4.18 m/s 135.87 Deg 0.39 µg/m3
2021-11-08 02:00 3.72 µg/m3 0.05 µg/m3 59.03 µg/m3 17.66 µg/m3 7.02 µg/m3 0.15 mg/m3 20.88 °C 96.15 % 4.66 m/s 169.27 Deg 0.37 µg/m3
2021-11-08 01:00 2.14 µg/m3 0.08 µg/m3 62.89 µg/m3 18.36 µg/m3 6.24 µg/m3 0.15 mg/m3 21.04 °C 93.83 % 4.74 m/s 140.95 Deg 0.36 µg/m3
2021-11-08 00:00 1.94 µg/m3 0.09 µg/m3 65.3 µg/m3 19.58 µg/m3 7.65 µg/m3 0.15 mg/m3 21.21 °C 93.31 % 5.7 m/s 144.32 Deg 0.36 µg/m3
2021-11-07 23:00 2.66 µg/m3 0.05 µg/m3 64.12 µg/m3 22.19 µg/m3 8.72 µg/m3 0.15 mg/m3 21.2 °C 94.06 % 4.15 m/s 184.33 Deg 0.38 µg/m3
2021-11-07 22:00 1.66 µg/m3 0.07 µg/m3 68.14 µg/m3 24.17 µg/m3 8.14 µg/m3 0.16 mg/m3 21.54 °C 93.6 % 3.39 m/s 176.21 Deg 0.38 µg/m3
2021-11-07 21:00 3.29 µg/m3 0.07 µg/m3 65.17 µg/m3 25 µg/m3 8.34 µg/m3 0.16 mg/m3 21.5 °C 93.03 % 4.3 m/s 124.92 Deg 0.38 µg/m3
2021-11-07 20:00 9.04 µg/m3 0.08 µg/m3 51.55 µg/m3 25.13 µg/m3 10.11 µg/m3 0.18 mg/m3 21.14 °C 93.33 % 2.63 m/s 152.92 Deg 0.38 µg/m3
2021-11-07 19:00 6.74 µg/m3 0.08 µg/m3 54.98 µg/m3 29.78 µg/m3 5.44 µg/m3 0.17 mg/m3 20.67 °C 96.14 % 1.6 m/s 112.68 Deg 0.41 µg/m3
2021-11-07 18:00 5.4 µg/m3 0.06 µg/m3 64.92 µg/m3 24.55 µg/m3 5.47 µg/m3 0.17 mg/m3 20.75 °C 96.08 % 2.33 m/s 173.4 Deg 0.4 µg/m3
2021-11-07 17:00 2.28 µg/m3 0.12 µg/m3 74.75 µg/m3 31.12 µg/m3 6.72 µg/m3 0.17 mg/m3 20.72 °C 94.37 % 4.81 m/s 97.42 Deg 0.46 µg/m3
2021-11-07 16:00 2.99 µg/m3 0.14 µg/m3 80.44 µg/m3 25.77 µg/m3 8.14 µg/m3 0.17 mg/m3 20.85 °C 91.71 % 2.85 m/s 255.35 Deg 0.4 µg/m3
2021-11-07 15:00 3.3 µg/m3 0.15 µg/m3 84.04 µg/m3 25.77 µg/m3 9.21 µg/m3 0.16 mg/m3 21.3 °C 88.73 % 2.73 m/s 278.12 Deg 0.46 µg/m3
2021-11-07 14:00 2.59 µg/m3 0.07 µg/m3 84.23 µg/m3 32.08 µg/m3 10.06 µg/m3 0.17 mg/m3 21.36 °C 88.34 % 3 m/s 276.86 Deg 0.49 µg/m3
2021-11-07 13:00 3.21 µg/m3 0.05 µg/m3 73.27 µg/m3 22.89 µg/m3 9.5 µg/m3 0.16 mg/m3 21.78 °C 90.82 % 4.16 m/s 204.84 Deg 0.67 µg/m3
2021-11-07 12:00 2.98 µg/m3 0.12 µg/m3 66.89 µg/m3 20.34 µg/m3 10.13 µg/m3 0.14 mg/m3 23.04 °C 84.89 % 9.6 m/s 174.76 Deg 0.74 µg/m3
2021-11-07 11:00 2.38 µg/m3 0.13 µg/m3 69 µg/m3 20.98 µg/m3 8.69 µg/m3 0.14 mg/m3 23.05 °C 82.57 % 10.3 m/s 149.64 Deg 0.61 µg/m3
2021-11-07 10:00 2.38 µg/m3 0.14 µg/m3 69.48 µg/m3 20.15 µg/m3 8.11 µg/m3 0.14 mg/m3 22.99 °C 80.04 % 9.72 m/s 112.88 Deg 0.55 µg/m3
2021-11-07 09:00 1.72 µg/m3 0.15 µg/m3 71.02 µg/m3 20.85 µg/m3 7.58 µg/m3 0.14 mg/m3 23.05 °C 76.44 % 9.52 m/s 93.31 Deg 0.45 µg/m3
2021-11-07 08:00 1.36 µg/m3 0.18 µg/m3 72.78 µg/m3 20.98 µg/m3 7.45 µg/m3 0.14 mg/m3 23 °C 72.94 % 9.11 m/s 31.02 Deg 0.4 µg/m3
2021-11-07 07:00 1.08 µg/m3 0.25 µg/m3 72.55 µg/m3 19.51 µg/m3 7.53 µg/m3 0.13 mg/m3 23.48 °C 66.14 % 9.46 m/s 39.75 Deg 0.38 µg/m3
2021-11-07 06:00 1.03 µg/m3 0.29 µg/m3 71.91 µg/m3 18.62 µg/m3 8.43 µg/m3 0.13 mg/m3 24.03 °C 60.31 % 10.32 m/s 116.36 Deg 0.37 µg/m3
2021-11-07 05:00 1.08 µg/m3 0.24 µg/m3 71.57 µg/m3 18.33 µg/m3 7.95 µg/m3 0.11 mg/m3 24.03 °C 60.5 % 10.81 m/s 81.28 Deg 0.35 µg/m3
2021-11-07 04:00 1.12 µg/m3 0.35 µg/m3 69.24 µg/m3 18.36 µg/m3 7.1 µg/m3 0.12 mg/m3 24.38 °C 57.81 % 11.43 m/s 76.78 Deg 0.34 µg/m3
2021-11-07 03:00 3.53 µg/m3 0.3 µg/m3 63.79 µg/m3 18.62 µg/m3 7.6 µg/m3 0.12 mg/m3 23.48 °C 64.68 % 8.77 m/s 95.5 Deg 0.35 µg/m3
2021-11-07 02:00 5.46 µg/m3 0.34 µg/m3 63.35 µg/m3 17.47 µg/m3 7.41 µg/m3 0.13 mg/m3 23 °C 68.54 % 8.77 m/s 94.4 Deg 0.36 µg/m3
2021-11-07 01:00 5.29 µg/m3 0.33 µg/m3 65.33 µg/m3 18.17 µg/m3 7.84 µg/m3 0.13 mg/m3 23.25 °C 66.36 % 8.88 m/s 77.98 Deg 0.35 µg/m3
2021-11-07 00:00 6.43 µg/m3 0.26 µg/m3 62.9 µg/m3 19.07 µg/m3 8.12 µg/m3 0.13 mg/m3 23.16 °C 66.5 % 8.39 m/s 12.95 Deg 0.36 µg/m3
2021-11-06 23:00 7.06 µg/m3 0.2 µg/m3 62.5 µg/m3 20.79 µg/m3 8.61 µg/m3 0.14 mg/m3 23.07 °C 68.57 % 8.73 m/s 80.29 Deg 0.35 µg/m3
2021-11-06 22:00 6.95 µg/m3 0.22 µg/m3 60.21 µg/m3 20.15 µg/m3 8.02 µg/m3 0.14 mg/m3 23.35 °C 66.75 % 8.79 m/s 52.87 Deg 0.35 µg/m3
2021-11-06 21:00 5.18 µg/m3 0.24 µg/m3 64.16 µg/m3 23.47 µg/m3 9.27 µg/m3 0.13 mg/m3 24.61 °C 54.98 % 9.55 m/s 50.86 Deg 0.37 µg/m3
2021-11-06 20:00 1.81 µg/m3 0.23 µg/m3 69.24 µg/m3 20.41 µg/m3 8.74 µg/m3 0.12 mg/m3 25.5 °C 48.14 % 9.68 m/s 42.6 Deg 0.36 µg/m3
2021-11-06 19:00 1.52 µg/m3 0.29 µg/m3 70.21 µg/m3 18.05 µg/m3 8.36 µg/m3 0.12 mg/m3 25.75 °C 46.79 % 10.4 m/s 66.38 Deg 0.36 µg/m3
2021-11-06 18:00 1.45 µg/m3 0.24 µg/m3 70.13 µg/m3 20.85 µg/m3 9.13 µg/m3 0.12 mg/m3 26.1 °C 44.77 % 11.01 m/s 98.46 Deg 0.4 µg/m3
2021-11-06 17:00 1.91 µg/m3 0.2 µg/m3 68.61 µg/m3 21.49 µg/m3 7.98 µg/m3 0.12 mg/m3 25.5 °C 52.14 % 10.72 m/s 122.91 Deg 0.52 µg/m3
2021-11-06 16:00 2.31 µg/m3 0.18 µg/m3 66.53 µg/m3 21.81 µg/m3 9.72 µg/m3 0.13 mg/m3 25.22 °C 57.84 % 10.18 m/s 102.52 Deg 0.94 µg/m3
2021-11-06 15:00 2.23 µg/m3 0.15 µg/m3 64.58 µg/m3 23.15 µg/m3 9.44 µg/m3 0.13 mg/m3 24.69 °C 64.76 % 9.53 m/s 46.79 Deg 0.72 µg/m3
2021-11-06 14:00 2.28 µg/m3 0.14 µg/m3 63.47 µg/m3 23.34 µg/m3 8.72 µg/m3 0.13 mg/m3 24.5 °C 67.4 % 9.17 m/s 58.69 Deg 0.62 µg/m3
2021-11-06 13:00 1.57 µg/m3 0.14 µg/m3 62.96 µg/m3 22.45 µg/m3 8.59 µg/m3 0.13 mg/m3 24.19 °C 70.83 % 9.16 m/s 50.32 Deg 0.42 µg/m3
2021-11-06 12:00 1.73 µg/m3 0.12 µg/m3 60.71 µg/m3 21.17 µg/m3 7.53 µg/m3 0.13 mg/m3 24.27 °C 71.54 % 8.8 m/s 114.45 Deg 0.48 µg/m3
2021-11-06 11:00 2.09 µg/m3 0.2 µg/m3 58.66 µg/m3 22.32 µg/m3 6.83 µg/m3 0.13 mg/m3 24.29 °C 72 % 5.8 m/s 70.02 Deg 0.49 µg/m3
2021-11-06 10:00 4.87 µg/m3 0.24 µg/m3 53.29 µg/m3 24.68 µg/m3 8.5 µg/m3 0.14 mg/m3 25.17 °C 63.67 % 5.69 m/s 99.54 Deg 1.14 µg/m3
2021-11-06 09:00 8.72 µg/m3 0.22 µg/m3 42.4 µg/m3 25.89 µg/m3 9.14 µg/m3 0.16 mg/m3 23.06 °C 79.82 % 5.14 m/s 98.52 Deg 3.84 µg/m3
2021-11-06 08:00 7.96 µg/m3 0.12 µg/m3 43.86 µg/m3 26.98 µg/m3 9.54 µg/m3 0.13 mg/m3 21.57 °C 87.82 % 5.15 m/s 191.56 Deg 0.78 µg/m3
2021-11-06 07:00 7.31 µg/m3 0.13 µg/m3 46.23 µg/m3 29.91 µg/m3 11 µg/m3 0.14 mg/m3 21.4 °C 88.27 % 6.51 m/s 111.73 Deg 0.5 µg/m3
2021-11-06 06:00 3.54 µg/m3 0.12 µg/m3 53.81 µg/m3 35.02 µg/m3 11.06 µg/m3 0.13 mg/m3 21.59 °C 86.89 % 7.5 m/s 88.26 Deg 0.37 µg/m3
2021-11-06 05:00 3.19 µg/m3 0.1 µg/m3 54.79 µg/m3 41.59 µg/m3 11.99 µg/m3 0.11 mg/m3 21.87 °C 83.71 % 7.78 m/s 81.47 Deg 0.36 µg/m3
2021-11-06 04:00 2.99 µg/m3 0.15 µg/m3 56.43 µg/m3 44.39 µg/m3 13.61 µg/m3 0.13 mg/m3 21.58 °C 86.88 % 7.15 m/s 151.73 Deg 0.36 µg/m3
2021-11-06 03:00 2.42 µg/m3 0.06 µg/m3 60.71 µg/m3 42.99 µg/m3 10.93 µg/m3 0.13 mg/m3 20.96 °C 93.89 % 7.5 m/s 177.17 Deg 0.38 µg/m3
2021-11-06 02:00 5.1 µg/m3 0.07 µg/m3 57.23 µg/m3 38.21 µg/m3 10.36 µg/m3 0.15 mg/m3 20.82 °C 95.13 % 7.16 m/s 67.48 Deg 0.38 µg/m3
2021-11-06 01:00 7.5 µg/m3 0.05 µg/m3 56.14 µg/m3 37.06 µg/m3 10.28 µg/m3 0.15 mg/m3 20.6 °C 97.04 % 6.79 m/s 68.51 Deg 0.37 µg/m3
2021-11-06 00:00 6.68 µg/m3 0.09 µg/m3 54.27 µg/m3 23.92 µg/m3 9.57 µg/m3 0.14 mg/m3 20.7 °C 97.63 % 5.84 m/s 57.28 Deg 0.37 µg/m3
2021-11-05 23:00 11.4 µg/m3 0.1 µg/m3 46.42 µg/m3 26.08 µg/m3 9.41 µg/m3 0.14 mg/m3 20.73 °C 97.88 % 4.45 m/s 71.6 Deg 0.39 µg/m3
2021-11-05 22:00 12.97 µg/m3 0.09 µg/m3 38.62 µg/m3 31.89 µg/m3 8.45 µg/m3 0.15 mg/m3 20.78 °C 96.81 % 3.41 m/s 49.13 Deg 0.39 µg/m3
2021-11-05 21:00 10.79 µg/m3 0.1 µg/m3 40.06 µg/m3 29.08 µg/m3 8.19 µg/m3 0.15 mg/m3 20.57 °C 95.55 % 3.04 m/s 46.69 Deg 0.4 µg/m3
2021-11-05 20:00 14.49 µg/m3 0.13 µg/m3 37.63 µg/m3 50.77 µg/m3 11.48 µg/m3 0.16 mg/m3 20.43 °C 95.98 % 3.94 m/s 152.78 Deg 0.38 µg/m3
2021-11-05 19:00 14.24 µg/m3 0.11 µg/m3 40.3 µg/m3 49.05 µg/m3 13.04 µg/m3 0.18 mg/m3 20.92 °C 90.52 % 3.89 m/s 192.94 Deg 0.41 µg/m3
2021-11-05 18:00 16.85 µg/m3 0.11 µg/m3 42.35 µg/m3 41.46 µg/m3 12.96 µg/m3 0.2 mg/m3 21.15 °C 90.12 % 4.78 m/s 116.38 Deg 0.42 µg/m3
2021-11-05 17:00 16.42 µg/m3 0.07 µg/m3 48.61 µg/m3 44.91 µg/m3 12.29 µg/m3 0.23 mg/m3 20.47 °C 97.05 % 6.37 m/s 110.17 Deg 0.68 µg/m3
2021-11-05 16:00 8.28 µg/m3 0.1 µg/m3 65.55 µg/m3 33.68 µg/m3 9.57 µg/m3 0.17 mg/m3 20.38 °C 96.27 % 5.44 m/s 80.88 Deg 0.71 µg/m3
2021-11-05 15:00 8.02 µg/m3 0.16 µg/m3 73.71 µg/m3 27.49 µg/m3 8.66 µg/m3 0.17 mg/m3 20.78 °C 92.21 % 7.62 m/s 73.73 Deg 0.83 µg/m3
2021-11-05 14:00 9.47 µg/m3 0.13 µg/m3 70.99 µg/m3 25.7 µg/m3 8.39 µg/m3 0.17 mg/m3 20.85 °C 92.44 % 7.01 m/s 114.5 Deg 1.46 µg/m3
2021-11-05 13:00 8.58 µg/m3 0.1 µg/m3 69.51 µg/m3 24.23 µg/m3 9.01 µg/m3 0.17 mg/m3 20.71 °C 93.33 % 7.83 m/s 97.7 Deg 1.35 µg/m3
2021-11-05 12:00 5.13 µg/m3 0.1 µg/m3 74.19 µg/m3 22.19 µg/m3 7.77 µg/m3 0.17 mg/m3 20.54 °C 93.94 % 6.53 m/s 238.27 Deg 0.88 µg/m3
2021-11-05 11:00 5.28 µg/m3 0.06 µg/m3 70.86 µg/m3 25 µg/m3 6.32 µg/m3 0.16 mg/m3 20.34 °C 95.89 % 5.84 m/s 105.74 Deg 0.86 µg/m3
2021-11-05 10:00 3 µg/m3 0.05 µg/m3 72.74 µg/m3 21.94 µg/m3 5.8 µg/m3 0.17 mg/m3 20.25 °C 96.23 % 3.38 m/s 186.54 Deg 0.49 µg/m3
2021-11-05 09:00 6.6 µg/m3 0.08 µg/m3 62.68 µg/m3 21.87 µg/m3 5.9 µg/m3 0.18 mg/m3 20.03 °C 95.9 % 3.25 m/s 114.16 Deg 0.82 µg/m3
2021-11-05 08:00 5.39 µg/m3 0.03 µg/m3 58.75 µg/m3 21.11 µg/m3 5.4 µg/m3 0.17 mg/m3 19.58 °C 95.42 % 2.12 m/s 188.74 Deg 0.69 µg/m3
2021-11-05 07:00 7.81 µg/m3 0.09 µg/m3 62.72 µg/m3 15.94 µg/m3 5.7 µg/m3 0.18 mg/m3 19.36 °C 95.62 % 1.6 m/s 119.63 Deg 0.39 µg/m3
2021-11-05 06:00 3.64 µg/m3 0.07 µg/m3 69.96 µg/m3 20.02 µg/m3 4.28 µg/m3 0.16 mg/m3 19.17 °C 97.18 % 1.81 m/s 168.09 Deg 0.36 µg/m3
2021-11-05 05:00 4 µg/m3 0.08 µg/m3 69.84 µg/m3 18.81 µg/m3 4.23 µg/m3 0.16 mg/m3 19.17 °C 97.37 % 2.54 m/s 152.78 Deg 0.36 µg/m3
2021-11-05 04:00 2.86 µg/m3 0.18 µg/m3 70 µg/m3 18.49 µg/m3 5.3 µg/m3 0.29 mg/m3 18.95 °C 97.06 % 2.54 m/s 146.39 Deg 0.36 µg/m3
2021-11-05 03:00 1.97 µg/m3 0.07 µg/m3 82.29 µg/m3 20.28 µg/m3 5.13 µg/m3 0.29 mg/m3 19.49 °C 95.49 % 0.6 m/s 276.78 Deg 0.34 µg/m3
2021-11-05 02:00 2.21 µg/m3 0.07 µg/m3 75.49 µg/m3 23.02 µg/m3 4.94 µg/m3 0.3 mg/m3 19.48 °C 97.23 % 1.03 m/s 297.23 Deg 0.35 µg/m3
2021-11-05 01:00 2.29 µg/m3 0.09 µg/m3 75.01 µg/m3 23.79 µg/m3 5.4 µg/m3 0.3 mg/m3 19.78 °C 95.21 % 2.63 m/s 253.99 Deg 0.36 µg/m3
2021-11-05 00:00 2.52 µg/m3 0.05 µg/m3 77.88 µg/m3 22.13 µg/m3 5.78 µg/m3 0.3 mg/m3 20.02 °C 93.73 % 3.39 m/s 236.92 Deg 0.38 µg/m3
2021-11-04 23:00 3.38 µg/m3 0.05 µg/m3 78.66 µg/m3 20.85 µg/m3 6.23 µg/m3 0.31 mg/m3 20.24 °C 93.71 % 3.94 m/s 249.49 Deg 0.36 µg/m3
2021-11-04 22:00 3.37 µg/m3 0.07 µg/m3 78.47 µg/m3 23.79 µg/m3 7 µg/m3 0.31 mg/m3 20.24 °C 95.42 % 4.05 m/s 240.08 Deg 0.36 µg/m3
2021-11-04 21:00 3.11 µg/m3 0.07 µg/m3 80.63 µg/m3 76.04 µg/m3 19.12 µg/m3 0.32 mg/m3 20.62 °C 96.88 % 4.77 m/s 254.44 Deg 0.36 µg/m3
2021-11-04 20:00 3.76 µg/m3 0.12 µg/m3 75.38 µg/m3 144.43 µg/m3 29.41 µg/m3 0.32 mg/m3 21.44 °C 96.45 % 4.97 m/s 211.45 Deg 0.36 µg/m3
2021-11-04 19:00 2.44 µg/m3 0.13 µg/m3 71.37 µg/m3 96.71 µg/m3 22.2 µg/m3 0.32 mg/m3 22.13 °C 89.44 % 6.41 m/s 198.52 Deg 0.34 µg/m3
2021-11-04 18:00 4.05 µg/m3 0.13 µg/m3 79.7 µg/m3 73.74 µg/m3 17.05 µg/m3 0.33 mg/m3 22.37 °C 85.66 % 7.17 m/s 182.76 Deg 0.37 µg/m3
2021-11-04 17:00 6.44 µg/m3 0.14 µg/m3 75.2 µg/m3 59.71 µg/m3 14.51 µg/m3 0.35 mg/m3 22.5 °C 84.03 % 6.85 m/s 180.04 Deg 0.48 µg/m3
2021-11-04 16:00 6.07 µg/m3 0.16 µg/m3 74.29 µg/m3 64.81 µg/m3 13.22 µg/m3 0.36 mg/m3 22.97 °C 81.67 % 7.92 m/s 139.39 Deg 0.7 µg/m3
2021-11-04 15:00 4.32 µg/m3 0.17 µg/m3 71.49 µg/m3 61.49 µg/m3 12.36 µg/m3 0.38 mg/m3 23.73 °C 76.91 % 7.33 m/s 148.36 Deg 0.76 µg/m3
2021-11-04 14:00 4.01 µg/m3 0.18 µg/m3 70.56 µg/m3 46.18 µg/m3 12.12 µg/m3 0.41 mg/m3 24.08 °C 75.08 % 7.4 m/s 126.1 Deg 0.75 µg/m3
2021-11-04 13:00 3.47 µg/m3 0.19 µg/m3 67.54 µg/m3 38.53 µg/m3 11.79 µg/m3 0.48 mg/m3 23.96 °C 78.03 % 7.08 m/s 89.55 Deg 0.61 µg/m3
2021-11-04 12:00 3.72 µg/m3 0.17 µg/m3 63.98 µg/m3 -0.78 µg/m3 4.89 µg/m3 0.62 mg/m3 23.92 °C 79.43 % 7.97 m/s 154.66 Deg 0.63 µg/m3
2021-11-04 11:00 2.89 µg/m3 0.77 µg/m3 46.55 µg/m3 -0.78 µg/m3 2.63 µg/m3 1.28 mg/m3 23.56 °C 81.97 % 7.9 m/s 159.31 Deg 0.49 µg/m3
2021-11-04 10:00 -0.95 µg/m3 0.77 µg/m3 0 µg/m3 -0.78 µg/m3 2.63 µg/m3 3.99 mg/m3 23.02 °C 83.86 % 8.38 m/s 171.5 Deg -1.14 µg/m3
2021-11-04 05:00 0 µg/m3 0 µg/m3 0 µg/m3 45.29 µg/m3 11.17 µg/m3 0 mg/m3 23.09 °C 81.8 % 9.61 m/s 163.04 Deg 0 µg/m3
2021-11-04 04:00 0 µg/m3 0 µg/m3 0 µg/m3 44.2 µg/m3 10.79 µg/m3 0 mg/m3 23.45 °C 78.37 % 10.22 m/s 94.75 Deg 0 µg/m3
2021-11-04 03:00 0 µg/m3 0 µg/m3 0 µg/m3 45.03 µg/m3 11.23 µg/m3 0 mg/m3 23.59 °C 76.8 % 10.05 m/s 150.18 Deg 0 µg/m3
2021-11-04 02:00 0 µg/m3 0 µg/m3 0 µg/m3 48.54 µg/m3 11.45 µg/m3 0 mg/m3 22.12 °C 84.41 % 8.58 m/s 165.33 Deg 0 µg/m3
2021-11-03 05:00 0 µg/m3 0 µg/m3 0 µg/m3 3.24 µg/m3 3.29 µg/m3 0 mg/m3 19.91 °C 82.84 % 5.1 m/s 175.27 Deg 0 µg/m3
2021-11-03 04:00 0 µg/m3 0 µg/m3 0 µg/m3 2.48 µg/m3 3.15 µg/m3 0 mg/m3 19.65 °C 80.43 % 4.12 m/s 180.18 Deg 0 µg/m3
2021-11-03 03:00 0 µg/m3 0 µg/m3 0 µg/m3 2.8 µg/m3 3.4 µg/m3 0 mg/m3 19.65 °C 77.71 % 4.7 m/s 111.41 Deg 0 µg/m3
2021-11-03 02:00 0 µg/m3 0 µg/m3 0 µg/m3 3.5 µg/m3 3.52 µg/m3 0 mg/m3 19.72 °C 75.31 % 2.72 m/s 67.79 Deg 0 µg/m3
2021-11-02 20:00 8.39 µg/m3 0.25 µg/m3 0 µg/m3 11.6 µg/m3 5.59 µg/m3 0.13 mg/m3 20.03 °C 72.28 % 3.13 m/s 250.17 Deg 1.13 µg/m3
2021-11-02 19:00 5.36 µg/m3 0.18 µg/m3 0 µg/m3 10.2 µg/m3 5.8 µg/m3 0.15 mg/m3 20.06 °C 71.43 % 3.79 m/s 268.72 Deg 0.86 µg/m3
2021-11-02 18:00 4.22 µg/m3 0.17 µg/m3 0 µg/m3 3.31 µg/m3 4.14 µg/m3 0.19 mg/m3 20.23 °C 67.9 % 4.64 m/s 238.67 Deg 0.66 µg/m3
2021-11-02 17:00 3.91 µg/m3 0.17 µg/m3 0 µg/m3 -4.86 µg/m3 -4.52 µg/m3 0.26 mg/m3 20.56 °C 67.04 % 5.25 m/s 246.75 Deg 0.67 µg/m3
2021-11-02 16:00 7.14 µg/m3 0.23 µg/m3 0 µg/m3 12.81 µg/m3 3.16 µg/m3 0.21 mg/m3 20.88 °C 68.34 % 5.51 m/s 256.51 Deg 1.12 µg/m3
2021-11-02 15:00 5.28 µg/m3 0.2 µg/m3 0 µg/m3 16.13 µg/m3 8.06 µg/m3 0.15 mg/m3 21.02 °C 70.18 % 5.73 m/s 231.78 Deg 0.88 µg/m3
2021-11-02 14:00 7.78 µg/m3 0.24 µg/m3 0 µg/m3 12.88 µg/m3 6.36 µg/m3 0.23 mg/m3 21 °C 71.08 % 5.97 m/s 224.09 Deg 1.47 µg/m3
2021-11-02 13:00 6.54 µg/m3 0.12 µg/m3 0 µg/m3 8.28 µg/m3 5.07 µg/m3 0.36 mg/m3 20.93 °C 70.9 % 5.89 m/s 254.08 Deg 0.98 µg/m3
2021-11-02 12:00 6.49 µg/m3 -0.02 µg/m3 0 µg/m3 -0.78 µg/m3 3.19 µg/m3 0.52 mg/m3 20.94 °C 65.03 % 6.39 m/s 220.11 Deg 0.81 µg/m3
2021-11-02 11:00 5.08 µg/m3 -0.03 µg/m3 0 µg/m3 -0.78 µg/m3 2.63 µg/m3 0.87 mg/m3 20.71 °C 70.27 % 7.01 m/s 164.69 Deg 0.65 µg/m3
2021-11-02 10:00 -1.96 µg/m3 0.74 µg/m3 0 µg/m3 -0.78 µg/m3 2.63 µg/m3 3 mg/m3 20.5 °C 78.87 % 6.44 m/s 210.62 Deg -0.6 µg/m3
2021-10-31 22:00 24.54 µg/m3 0.13 µg/m3 0 µg/m3 6.31 µg/m3 5.35 µg/m3 0.19 mg/m3 16.63 °C 99.43 % 1.15 m/s 242.07 Deg 15.01 µg/m3
2021-10-31 21:00 12.1 µg/m3 0.07 µg/m3 0 µg/m3 5.21 µg/m3 4.82 µg/m3 0.17 mg/m3 16.7 °C 98.67 % 1.97 m/s 272.97 Deg 5.17 µg/m3
2021-10-31 20:00 13.1 µg/m3 0.06 µg/m3 0 µg/m3 7.71 µg/m3 5 µg/m3 0.18 mg/m3 18.03 °C 94.81 % 2.69 m/s 212.38 Deg 2.97 µg/m3
2021-10-31 19:00 24.19 µg/m3 0.09 µg/m3 0 µg/m3 7.95 µg/m3 5.43 µg/m3 0.18 mg/m3 19.27 °C 90.43 % 3.59 m/s 173.17 Deg 2.77 µg/m3
2021-10-31 18:00 23.84 µg/m3 0.08 µg/m3 0 µg/m3 7.85 µg/m3 5.89 µg/m3 0.18 mg/m3 19.63 °C 85.7 % 4.48 m/s 110.02 Deg 2.09 µg/m3
2021-10-31 17:00 23.13 µg/m3 0.06 µg/m3 0 µg/m3 6.8 µg/m3 5.27 µg/m3 0.18 mg/m3 19.62 °C 85.79 % 4.81 m/s 134.47 Deg 1.99 µg/m3
2021-10-31 16:00 23.56 µg/m3 0.06 µg/m3 0 µg/m3 10.31 µg/m3 6.11 µg/m3 0.18 mg/m3 19.67 °C 85.74 % 4.87 m/s 111.63 Deg 2.04 µg/m3
2021-10-31 15:00 25.99 µg/m3 0.09 µg/m3 0 µg/m3 9.21 µg/m3 6.02 µg/m3 0.19 mg/m3 19.99 °C 81.99 % 4.01 m/s 51.01 Deg 2.31 µg/m3
2021-10-31 14:00 25.72 µg/m3 0.07 µg/m3 0 µg/m3 9.99 µg/m3 6.11 µg/m3 0.19 mg/m3 19.94 °C 82.72 % 3.61 m/s 108.42 Deg 2.53 µg/m3
2021-10-31 13:00 28.52 µg/m3 0.1 µg/m3 0 µg/m3 7.5 µg/m3 5 µg/m3 0.19 mg/m3 20.26 °C 79.21 % 3.36 m/s 102.69 Deg 3.07 µg/m3
2021-10-31 12:00 28.44 µg/m3 0.16 µg/m3 0 µg/m3 5.21 µg/m3 5.13 µg/m3 0.19 mg/m3 20.39 °C 76.42 % 1.91 m/s 106.59 Deg 7.1 µg/m3
2021-10-31 11:00 28.86 µg/m3 0.12 µg/m3 0 µg/m3 5.06 µg/m3 5.59 µg/m3 0.2 mg/m3 19.89 °C 78.65 % 2.5 m/s 42.52 Deg 5.26 µg/m3
2021-10-31 10:00 27.41 µg/m3 0.15 µg/m3 0 µg/m3 5.16 µg/m3 4.98 µg/m3 0.21 mg/m3 19.52 °C 79.65 % 1.57 m/s 100.72 Deg 9.37 µg/m3
2021-10-31 09:00 26.72 µg/m3 0.12 µg/m3 0 µg/m3 6.83 µg/m3 5.62 µg/m3 0.19 mg/m3 18.34 °C 77.81 % 2.38 m/s 112.62 Deg 5.81 µg/m3
2021-10-31 08:00 27.87 µg/m3 0.09 µg/m3 0 µg/m3 7.06 µg/m3 5.46 µg/m3 0.19 mg/m3 18.44 °C 88.14 % 2.83 m/s 80.32 Deg 4.54 µg/m3
2021-10-31 07:00 27.03 µg/m3 0.1 µg/m3 0 µg/m3 3.93 µg/m3 4.57 µg/m3 0.19 mg/m3 18.03 °C 91.89 % 3.27 m/s 72.31 Deg 3.71 µg/m3
2021-10-31 06:00 26.29 µg/m3 0.08 µg/m3 0 µg/m3 4.55 µg/m3 4.18 µg/m3 0.19 mg/m3 17.77 °C 90.86 % 3.35 m/s 70.73 Deg 3.46 µg/m3
2021-10-31 05:00 27.26 µg/m3 0.11 µg/m3 0 µg/m3 8.16 µg/m3 5.12 µg/m3 0.16 mg/m3 17.61 °C 91.5 % 3.4 m/s 81.58 Deg 4.35 µg/m3
2021-10-31 04:00 24.93 µg/m3 0.75 µg/m3 0 µg/m3 9.46 µg/m3 5.34 µg/m3 0.2 mg/m3 18 °C 91.71 % 2.75 m/s 140.94 Deg 8.78 µg/m3
2021-10-31 03:00 25.67 µg/m3 0.13 µg/m3 0 µg/m3 14.47 µg/m3 5.9 µg/m3 0.2 mg/m3 18.56 °C 90.05 % 1.78 m/s 50.62 Deg 13.13 µg/m3
2021-10-31 02:00 26.98 µg/m3 0.22 µg/m3 0 µg/m3 13.83 µg/m3 5.96 µg/m3 0.2 mg/m3 18.7 °C 90.13 % 2.11 m/s 136.53 Deg 15.37 µg/m3
2021-10-31 01:00 27.82 µg/m3 0.26 µg/m3 0 µg/m3 14.03 µg/m3 4.88 µg/m3 0.2 mg/m3 19.05 °C 86.9 % 1.64 m/s 58.42 Deg 20.63 µg/m3
2021-10-31 00:00 24.72 µg/m3 0.3 µg/m3 0 µg/m3 11.35 µg/m3 5.69 µg/m3 0.2 mg/m3 19.06 °C 87.08 % 1.2 m/s 69.2 Deg 23.07 µg/m3
2021-10-30 23:00 25.65 µg/m3 0.34 µg/m3 0 µg/m3 10.39 µg/m3 5.26 µg/m3 0.2 mg/m3 19.08 °C 86.63 % 1.46 m/s 196.47 Deg 22.62 µg/m3
2021-10-30 22:00 25.91 µg/m3 0.27 µg/m3 0 µg/m3 9.43 µg/m3 5.41 µg/m3 0.2 mg/m3 19.07 °C 86.12 % 1.41 m/s 226.58 Deg 22.86 µg/m3
2021-10-30 21:00 15.98 µg/m3 0.17 µg/m3 0 µg/m3 11.22 µg/m3 5.5 µg/m3 0.18 mg/m3 18.93 °C 86.99 % 1.94 m/s 175.24 Deg 11.51 µg/m3
2021-10-30 20:00 11.76 µg/m3 0.15 µg/m3 0 µg/m3 7.9 µg/m3 5.39 µg/m3 0.18 mg/m3 19.14 °C 86.4 % 2.5 m/s 105.77 Deg 5.55 µg/m3
2021-10-30 19:00 10.04 µg/m3 0.14 µg/m3 0 µg/m3 6.05 µg/m3 5 µg/m3 0.19 mg/m3 19.5 °C 81.98 % 2.43 m/s 94.84 Deg 2.96 µg/m3
2021-10-30 18:00 3.97 µg/m3 0.14 µg/m3 0 µg/m3 6.75 µg/m3 4.57 µg/m3 0.19 mg/m3 19.92 °C 78.08 % 2.62 m/s 329.93 Deg 0.59 µg/m3
2021-10-30 17:00 3.96 µg/m3 0.17 µg/m3 0 µg/m3 5.6 µg/m3 4.6 µg/m3 0.19 mg/m3 19.96 °C 77.95 % 3.24 m/s 269.81 Deg 0.54 µg/m3
2021-10-30 16:00 2.79 µg/m3 0.2 µg/m3 0 µg/m3 4.97 µg/m3 4.47 µg/m3 0.19 mg/m3 20.1 °C 76.65 % 4.04 m/s 244.14 Deg 0.52 µg/m3
2021-10-30 15:00 2.71 µg/m3 0.25 µg/m3 0 µg/m3 5.35 µg/m3 4.34 µg/m3 0.19 mg/m3 20.31 °C 75.9 % 4.88 m/s 243.7 Deg 0.55 µg/m3
2021-10-30 14:00 5.39 µg/m3 0.32 µg/m3 0 µg/m3 5.73 µg/m3 4.35 µg/m3 0.19 mg/m3 20.35 °C 75.33 % 5.09 m/s 245.09 Deg 1.22 µg/m3
2021-10-30 13:00 3.47 µg/m3 0.25 µg/m3 0 µg/m3 7.01 µg/m3 3.66 µg/m3 0.18 mg/m3 20.44 °C 74.63 % 5.1 m/s 253.24 Deg 0.78 µg/m3
2021-10-30 12:00 2.47 µg/m3 0.23 µg/m3 0 µg/m3 7.2 µg/m3 4.13 µg/m3 0.18 mg/m3 20.45 °C 73.93 % 4.82 m/s 137.35 Deg 0.57 µg/m3
2021-10-30 11:00 2.43 µg/m3 0.27 µg/m3 0 µg/m3 8.86 µg/m3 5.39 µg/m3 0.18 mg/m3 20.41 °C 72.72 % 5.42 m/s 150.4 Deg 0.57 µg/m3
2021-10-30 10:00 3.31 µg/m3 0.26 µg/m3 0 µg/m3 7.45 µg/m3 6.04 µg/m3 0.2 mg/m3 19.98 °C 78.88 % 6.31 m/s 289.13 Deg 0.67 µg/m3
2021-10-30 09:00 3.78 µg/m3 0.22 µg/m3 0 µg/m3 8.03 µg/m3 5.3 µg/m3 0.2 mg/m3 19.51 °C 81.08 % 6.21 m/s 294.26 Deg 0.68 µg/m3
2021-10-30 08:00 5.56 µg/m3 0.22 µg/m3 0 µg/m3 8.09 µg/m3 6.18 µg/m3 0.19 mg/m3 19.16 °C 79.67 % 6.47 m/s 287.76 Deg 0.66 µg/m3
2021-10-30 07:00 3.02 µg/m3 0.19 µg/m3 0 µg/m3 7.71 µg/m3 6.01 µg/m3 0.19 mg/m3 18.89 °C 80.11 % 6.56 m/s 324.36 Deg 0.42 µg/m3
2021-10-30 06:00 3.42 µg/m3 0.2 µg/m3 0 µg/m3 5.73 µg/m3 4.66 µg/m3 0.19 mg/m3 18.96 °C 77.49 % 6.52 m/s 311.15 Deg 0.42 µg/m3
2021-10-30 05:00 4.8 µg/m3 0.19 µg/m3 0 µg/m3 5.48 µg/m3 4.83 µg/m3 0.16 mg/m3 18.95 °C 79.07 % 6.69 m/s 320.91 Deg 0.42 µg/m3
2021-10-30 04:00 3.09 µg/m3 0.77 µg/m3 0 µg/m3 6.18 µg/m3 5.16 µg/m3 0.19 mg/m3 18.96 °C 79.48 % 7.51 m/s 294.73 Deg 0.39 µg/m3
2021-10-30 03:00 2.52 µg/m3 0.38 µg/m3 0 µg/m3 5.22 µg/m3 4.61 µg/m3 0.19 mg/m3 18.92 °C 78.91 % 8.74 m/s 309.32 Deg 0.38 µg/m3

It is to be noted that the data is provisional and subject to quality assurance procedures. For validated data kindly refer your request to contact.air@era.org.mt